<?xml version="1.0" encoding="UTF-8" standalone="no" ?>
<gpx xmlns="http://www.topografix.com/GPX/1/1" xmlns:xsi="http://www.w3.org/2001/XMLSchema-instance" xsi:schemaLocation="http://www.topografix.com/GPX/1/1 http://www.topografix.com/GPX/1/1/gpx.xsd" version="1.1" creator="VisuGPX - https://www.visugpx.com">
  <metadata>
    <name>Le plan de la tour rando vtt vacances 2018</name>
    <desc><![CDATA[Le plan de la tour rando vtt vacances 2018]]></desc>
  </metadata>
  <trk>
    <name><![CDATA[20180805103404-PaBVY]]></name>
    <trkseg>
      <trkpt lat="43.28183" lon="6.58689">
        <ele>4</ele>
        <time>2011-08-05T08:09:05Z</time>
      </trkpt>
      <trkpt lat="43.28198" lon="6.58633">
        <ele>5</ele>
        <time>2011-08-05T08:09:24Z</time>
      </trkpt>
      <trkpt lat="43.28205" lon="6.58578">
        <ele>7</ele>
        <time>2011-08-05T08:09:41Z</time>
      </trkpt>
      <trkpt lat="43.28188" lon="6.58524">
        <ele>8</ele>
        <time>2011-08-05T08:09:54Z</time>
      </trkpt>
      <trkpt lat="43.28184" lon="6.58455">
        <ele>8</ele>
        <time>2011-08-05T08:10:09Z</time>
      </trkpt>
      <trkpt lat="43.28159" lon="6.58388">
        <ele>6</ele>
        <time>2011-08-05T08:10:23Z</time>
      </trkpt>
      <trkpt lat="43.28144" lon="6.58326">
        <ele>6</ele>
        <time>2011-08-05T08:10:37Z</time>
      </trkpt>
      <trkpt lat="43.28115" lon="6.58259">
        <ele>6</ele>
        <time>2011-08-05T08:10:54Z</time>
      </trkpt>
      <trkpt lat="43.281" lon="6.58192">
        <ele>7</ele>
        <time>2011-08-05T08:11:11Z</time>
      </trkpt>
      <trkpt lat="43.28086" lon="6.5813">
        <ele>6</ele>
        <time>2011-08-05T08:11:27Z</time>
      </trkpt>
      <trkpt lat="43.28066" lon="6.58065">
        <ele>5</ele>
        <time>2011-08-05T08:11:41Z</time>
      </trkpt>
      <trkpt lat="43.28042" lon="6.58">
        <ele>6</ele>
        <time>2011-08-05T08:11:53Z</time>
      </trkpt>
      <trkpt lat="43.2802" lon="6.57944">
        <ele>6</ele>
        <time>2011-08-05T08:12:04Z</time>
      </trkpt>
      <trkpt lat="43.28044" lon="6.57914">
        <ele>6</ele>
        <time>2011-08-05T08:12:30Z</time>
      </trkpt>
      <trkpt lat="43.28069" lon="6.57865">
        <ele>7</ele>
        <time>2011-08-05T08:12:51Z</time>
      </trkpt>
      <trkpt lat="43.28103" lon="6.57822">
        <ele>8</ele>
        <time>2011-08-05T08:13:09Z</time>
      </trkpt>
      <trkpt lat="43.28135" lon="6.57775">
        <ele>9</ele>
        <time>2011-08-05T08:13:26Z</time>
      </trkpt>
      <trkpt lat="43.28178" lon="6.57745">
        <ele>13</ele>
        <time>2011-08-05T08:13:42Z</time>
      </trkpt>
      <trkpt lat="43.28227" lon="6.57741">
        <ele>14</ele>
        <time>2011-08-05T08:13:58Z</time>
      </trkpt>
      <trkpt lat="43.28261" lon="6.57696">
        <ele>14</ele>
        <time>2011-08-05T08:14:11Z</time>
      </trkpt>
      <trkpt lat="43.28295" lon="6.57651">
        <ele>16</ele>
        <time>2011-08-05T08:14:25Z</time>
      </trkpt>
      <trkpt lat="43.2834" lon="6.57627">
        <ele>15</ele>
        <time>2011-08-05T08:14:36Z</time>
      </trkpt>
      <trkpt lat="43.28394" lon="6.57621">
        <ele>15</ele>
        <time>2011-08-05T08:14:45Z</time>
      </trkpt>
      <trkpt lat="43.28443" lon="6.57624">
        <ele>15</ele>
        <time>2011-08-05T08:14:55Z</time>
      </trkpt>
      <trkpt lat="43.28491" lon="6.57624">
        <ele>14</ele>
        <time>2011-08-05T08:15:09Z</time>
      </trkpt>
      <trkpt lat="43.28537" lon="6.57616">
        <ele>15</ele>
        <time>2011-08-05T08:15:24Z</time>
      </trkpt>
      <trkpt lat="43.28581" lon="6.57594">
        <ele>16</ele>
        <time>2011-08-05T08:15:39Z</time>
      </trkpt>
      <trkpt lat="43.28617" lon="6.57559">
        <ele>20</ele>
        <time>2011-08-05T08:15:52Z</time>
      </trkpt>
      <trkpt lat="43.28654" lon="6.57519">
        <ele>20</ele>
        <time>2011-08-05T08:16:05Z</time>
      </trkpt>
      <trkpt lat="43.28693" lon="6.5748">
        <ele>20</ele>
        <time>2011-08-05T08:16:19Z</time>
      </trkpt>
      <trkpt lat="43.28732" lon="6.57467">
        <ele>21</ele>
        <time>2011-08-05T08:16:37Z</time>
      </trkpt>
      <trkpt lat="43.28779" lon="6.57469">
        <ele>24</ele>
        <time>2011-08-05T08:16:59Z</time>
      </trkpt>
      <trkpt lat="43.28824" lon="6.57461">
        <ele>25</ele>
        <time>2011-08-05T08:17:18Z</time>
      </trkpt>
      <trkpt lat="43.28872" lon="6.57462">
        <ele>30</ele>
        <time>2011-08-05T08:17:39Z</time>
      </trkpt>
      <trkpt lat="43.2891" lon="6.57431">
        <ele>29</ele>
        <time>2011-08-05T08:17:56Z</time>
      </trkpt>
      <trkpt lat="43.28957" lon="6.57418">
        <ele>32</ele>
        <time>2011-08-05T08:18:17Z</time>
      </trkpt>
      <trkpt lat="43.29004" lon="6.5741">
        <ele>33</ele>
        <time>2011-08-05T08:18:36Z</time>
      </trkpt>
      <trkpt lat="43.29046" lon="6.57385">
        <ele>35</ele>
        <time>2011-08-05T08:18:54Z</time>
      </trkpt>
      <trkpt lat="43.29092" lon="6.57395">
        <ele>38</ele>
        <time>2011-08-05T08:19:16Z</time>
      </trkpt>
      <trkpt lat="43.29137" lon="6.57406">
        <ele>39</ele>
        <time>2011-08-05T08:19:40Z</time>
      </trkpt>
      <trkpt lat="43.29176" lon="6.57443">
        <ele>41</ele>
        <time>2011-08-05T08:19:58Z</time>
      </trkpt>
      <trkpt lat="43.2922" lon="6.57454">
        <ele>41</ele>
        <time>2011-08-05T08:20:12Z</time>
      </trkpt>
      <trkpt lat="43.29267" lon="6.57462">
        <ele>43</ele>
        <time>2011-08-05T08:20:31Z</time>
      </trkpt>
      <trkpt lat="43.29311" lon="6.57493">
        <ele>45</ele>
        <time>2011-08-05T08:20:53Z</time>
      </trkpt>
      <trkpt lat="43.29359" lon="6.57499">
        <ele>47</ele>
        <time>2011-08-05T08:21:13Z</time>
      </trkpt>
      <trkpt lat="43.29406" lon="6.57507">
        <ele>49</ele>
        <time>2011-08-05T08:21:36Z</time>
      </trkpt>
      <trkpt lat="43.29452" lon="6.57514">
        <ele>51</ele>
        <time>2011-08-05T08:21:59Z</time>
      </trkpt>
      <trkpt lat="43.29493" lon="6.57484">
        <ele>51</ele>
        <time>2011-08-05T08:22:23Z</time>
      </trkpt>
      <trkpt lat="43.29535" lon="6.57456">
        <ele>55</ele>
        <time>2011-08-05T08:22:46Z</time>
      </trkpt>
      <trkpt lat="43.29578" lon="6.57453">
        <ele>57</ele>
        <time>2011-08-05T08:23:05Z</time>
      </trkpt>
      <trkpt lat="43.2963" lon="6.57442">
        <ele>63</ele>
        <time>2011-08-05T08:23:35Z</time>
      </trkpt>
      <trkpt lat="43.29677" lon="6.57436">
        <ele>68</ele>
        <time>2011-08-05T08:24:32Z</time>
      </trkpt>
      <trkpt lat="43.29722" lon="6.57436">
        <ele>72</ele>
        <time>2011-08-05T08:25:05Z</time>
      </trkpt>
      <trkpt lat="43.29765" lon="6.57421">
        <ele>77</ele>
        <time>2011-08-05T08:25:28Z</time>
      </trkpt>
      <trkpt lat="43.29809" lon="6.57395">
        <ele>76</ele>
        <time>2011-08-05T08:25:43Z</time>
      </trkpt>
      <trkpt lat="43.29849" lon="6.57363">
        <ele>81</ele>
        <time>2011-08-05T08:25:58Z</time>
      </trkpt>
      <trkpt lat="43.29882" lon="6.5732">
        <ele>77</ele>
        <time>2011-08-05T08:26:44Z</time>
      </trkpt>
      <trkpt lat="43.2992" lon="6.57283">
        <ele>83</ele>
        <time>2011-08-05T08:27:03Z</time>
      </trkpt>
      <trkpt lat="43.29958" lon="6.57241">
        <ele>82</ele>
        <time>2011-08-05T08:27:20Z</time>
      </trkpt>
      <trkpt lat="43.29997" lon="6.57211">
        <ele>84</ele>
        <time>2011-08-05T08:27:39Z</time>
      </trkpt>
      <trkpt lat="43.3004" lon="6.57181">
        <ele>90</ele>
        <time>2011-08-05T08:27:58Z</time>
      </trkpt>
      <trkpt lat="43.30068" lon="6.57137">
        <ele>92</ele>
        <time>2011-08-05T08:28:23Z</time>
      </trkpt>
      <trkpt lat="43.30122" lon="6.57127">
        <ele>95</ele>
        <time>2011-08-05T08:34:24Z</time>
      </trkpt>
      <trkpt lat="43.30176" lon="6.57121">
        <ele>97</ele>
        <time>2011-08-05T08:36:00Z</time>
      </trkpt>
      <trkpt lat="43.30208" lon="6.57077">
        <ele>105</ele>
        <time>2011-08-05T08:37:15Z</time>
      </trkpt>
      <trkpt lat="43.30202" lon="6.5703">
        <ele>109</ele>
        <time>2011-08-05T08:39:17Z</time>
      </trkpt>
      <trkpt lat="43.30225" lon="6.56977">
        <ele>122</ele>
        <time>2011-08-05T08:40:43Z</time>
      </trkpt>
      <trkpt lat="43.3025" lon="6.56928">
        <ele>123</ele>
        <time>2011-08-05T08:42:08Z</time>
      </trkpt>
      <trkpt lat="43.30288" lon="6.5688">
        <ele>129</ele>
        <time>2011-08-05T08:42:54Z</time>
      </trkpt>
      <trkpt lat="43.30314" lon="6.56832">
        <ele>135</ele>
        <time>2011-08-05T08:43:26Z</time>
      </trkpt>
      <trkpt lat="43.30337" lon="6.56771">
        <ele>135</ele>
        <time>2011-08-05T08:45:23Z</time>
      </trkpt>
      <trkpt lat="43.30354" lon="6.56713">
        <ele>146</ele>
        <time>2011-08-05T08:46:40Z</time>
      </trkpt>
      <trkpt lat="43.30385" lon="6.56664">
        <ele>159</ele>
        <time>2011-08-05T08:49:20Z</time>
      </trkpt>
      <trkpt lat="43.30395" lon="6.566">
        <ele>164</ele>
        <time>2011-08-05T08:50:14Z</time>
      </trkpt>
      <trkpt lat="43.30373" lon="6.56553">
        <ele>177</ele>
        <time>2011-08-05T08:51:29Z</time>
      </trkpt>
      <trkpt lat="43.30343" lon="6.56514">
        <ele>183</ele>
        <time>2011-08-05T08:53:41Z</time>
      </trkpt>
      <trkpt lat="43.303" lon="6.56527">
        <ele>183</ele>
        <time>2011-08-05T08:54:39Z</time>
      </trkpt>
      <trkpt lat="43.30258" lon="6.56544">
        <ele>183</ele>
        <time>2011-08-05T08:55:04Z</time>
      </trkpt>
      <trkpt lat="43.3021" lon="6.56551">
        <ele>186</ele>
        <time>2011-08-05T08:55:41Z</time>
      </trkpt>
      <trkpt lat="43.30186" lon="6.56513">
        <ele>189</ele>
        <time>2011-08-05T08:56:18Z</time>
      </trkpt>
      <trkpt lat="43.30198" lon="6.56452">
        <ele>198</ele>
        <time>2011-08-05T08:57:00Z</time>
      </trkpt>
      <trkpt lat="43.30221" lon="6.56405">
        <ele>202</ele>
        <time>2011-08-05T08:58:28Z</time>
      </trkpt>
      <trkpt lat="43.30248" lon="6.56395">
        <ele>203</ele>
        <time>2011-08-05T08:59:45Z</time>
      </trkpt>
      <trkpt lat="43.30267" lon="6.56341">
        <ele>208</ele>
        <time>2011-08-05T09:00:00Z</time>
      </trkpt>
      <trkpt lat="43.30278" lon="6.56279">
        <ele>208</ele>
        <time>2011-08-05T09:00:36Z</time>
      </trkpt>
      <trkpt lat="43.30292" lon="6.56216">
        <ele>204</ele>
        <time>2011-08-05T09:00:54Z</time>
      </trkpt>
      <trkpt lat="43.30314" lon="6.56158">
        <ele>203</ele>
        <time>2011-08-05T09:01:11Z</time>
      </trkpt>
      <trkpt lat="43.30332" lon="6.56098">
        <ele>198</ele>
        <time>2011-08-05T09:01:44Z</time>
      </trkpt>
      <trkpt lat="43.30354" lon="6.56032">
        <ele>204</ele>
        <time>2011-08-05T09:01:56Z</time>
      </trkpt>
      <trkpt lat="43.30375" lon="6.55972">
        <ele>189</ele>
        <time>2011-08-05T09:02:06Z</time>
      </trkpt>
      <trkpt lat="43.30407" lon="6.55924">
        <ele>186</ele>
        <time>2011-08-05T09:02:16Z</time>
      </trkpt>
      <trkpt lat="43.30449" lon="6.55897">
        <ele>181</ele>
        <time>2011-08-05T09:02:59Z</time>
      </trkpt>
      <trkpt lat="43.30494" lon="6.5588">
        <ele>182</ele>
        <time>2011-08-05T09:03:08Z</time>
      </trkpt>
      <trkpt lat="43.30539" lon="6.55864">
        <ele>187</ele>
        <time>2011-08-05T09:03:21Z</time>
      </trkpt>
      <trkpt lat="43.30575" lon="6.55831">
        <ele>174</ele>
        <time>2011-08-05T09:03:37Z</time>
      </trkpt>
      <trkpt lat="43.30588" lon="6.5577">
        <ele>176</ele>
        <time>2011-08-05T09:03:48Z</time>
      </trkpt>
      <trkpt lat="43.30617" lon="6.55722">
        <ele>171</ele>
        <time>2011-08-05T09:04:11Z</time>
      </trkpt>
      <trkpt lat="43.30654" lon="6.5569">
        <ele>174</ele>
        <time>2011-08-05T09:04:31Z</time>
      </trkpt>
      <trkpt lat="43.30687" lon="6.55645">
        <ele>180</ele>
        <time>2011-08-05T09:04:47Z</time>
      </trkpt>
      <trkpt lat="43.30718" lon="6.55595">
        <ele>181</ele>
        <time>2011-08-05T09:05:06Z</time>
      </trkpt>
      <trkpt lat="43.30755" lon="6.55555">
        <ele>185</ele>
        <time>2011-08-05T09:05:24Z</time>
      </trkpt>
      <trkpt lat="43.30799" lon="6.55528">
        <ele>185</ele>
        <time>2011-08-05T09:05:46Z</time>
      </trkpt>
      <trkpt lat="43.30838" lon="6.5549">
        <ele>184</ele>
        <time>2011-08-05T09:06:05Z</time>
      </trkpt>
      <trkpt lat="43.30877" lon="6.55459">
        <ele>185</ele>
        <time>2011-08-05T09:06:27Z</time>
      </trkpt>
      <trkpt lat="43.30919" lon="6.55423">
        <ele>188</ele>
        <time>2011-08-05T09:06:51Z</time>
      </trkpt>
      <trkpt lat="43.30943" lon="6.55366">
        <ele>184</ele>
        <time>2011-08-05T09:07:05Z</time>
      </trkpt>
      <trkpt lat="43.30964" lon="6.55306">
        <ele>180</ele>
        <time>2011-08-05T09:07:14Z</time>
      </trkpt>
      <trkpt lat="43.30981" lon="6.55246">
        <ele>181</ele>
        <time>2011-08-05T09:07:26Z</time>
      </trkpt>
      <trkpt lat="43.30998" lon="6.55189">
        <ele>180</ele>
        <time>2011-08-05T09:07:49Z</time>
      </trkpt>
      <trkpt lat="43.31016" lon="6.55133">
        <ele>185</ele>
        <time>2011-08-05T09:08:10Z</time>
      </trkpt>
      <trkpt lat="43.31045" lon="6.55084">
        <ele>185</ele>
        <time>2011-08-05T09:08:30Z</time>
      </trkpt>
      <trkpt lat="43.31077" lon="6.55039">
        <ele>186</ele>
        <time>2011-08-05T09:08:52Z</time>
      </trkpt>
      <trkpt lat="43.3111" lon="6.54999">
        <ele>188</ele>
        <time>2011-08-05T09:09:46Z</time>
      </trkpt>
      <trkpt lat="43.31099" lon="6.55008">
        <ele>187</ele>
        <time>2011-08-05T09:10:45Z</time>
      </trkpt>
      <trkpt lat="43.31105" lon="6.5503">
        <ele>187</ele>
        <time>2011-08-05T09:11:02Z</time>
      </trkpt>
      <trkpt lat="43.31148" lon="6.54999">
        <ele>187</ele>
        <time>2011-08-05T09:11:14Z</time>
      </trkpt>
      <trkpt lat="43.3119" lon="6.54967">
        <ele>184</ele>
        <time>2011-08-05T09:11:23Z</time>
      </trkpt>
      <trkpt lat="43.31232" lon="6.54936">
        <ele>183</ele>
        <time>2011-08-05T09:11:30Z</time>
      </trkpt>
      <trkpt lat="43.31271" lon="6.54901">
        <ele>178</ele>
        <time>2011-08-05T09:11:36Z</time>
      </trkpt>
      <trkpt lat="43.31311" lon="6.54868">
        <ele>177</ele>
        <time>2011-08-05T09:11:43Z</time>
      </trkpt>
      <trkpt lat="43.31328" lon="6.54917">
        <ele>173</ele>
        <time>2011-08-05T09:11:55Z</time>
      </trkpt>
      <trkpt lat="43.3137" lon="6.54902">
        <ele>171</ele>
        <time>2011-08-05T09:12:33Z</time>
      </trkpt>
      <trkpt lat="43.31415" lon="6.54885">
        <ele>170</ele>
        <time>2011-08-05T09:12:43Z</time>
      </trkpt>
      <trkpt lat="43.3146" lon="6.54885">
        <ele>165</ele>
        <time>2011-08-05T09:12:56Z</time>
      </trkpt>
      <trkpt lat="43.31508" lon="6.54892">
        <ele>161</ele>
        <time>2011-08-05T09:13:10Z</time>
      </trkpt>
      <trkpt lat="43.31555" lon="6.54884">
        <ele>159</ele>
        <time>2011-08-05T09:13:23Z</time>
      </trkpt>
      <trkpt lat="43.31601" lon="6.54886">
        <ele>154</ele>
        <time>2011-08-05T09:13:38Z</time>
      </trkpt>
      <trkpt lat="43.31643" lon="6.54901">
        <ele>151</ele>
        <time>2011-08-05T09:15:02Z</time>
      </trkpt>
      <trkpt lat="43.31685" lon="6.54892">
        <ele>143</ele>
        <time>2011-08-05T09:15:33Z</time>
      </trkpt>
      <trkpt lat="43.31727" lon="6.54877">
        <ele>139</ele>
        <time>2011-08-05T09:16:01Z</time>
      </trkpt>
      <trkpt lat="43.31772" lon="6.54864">
        <ele>130</ele>
        <time>2011-08-05T09:16:08Z</time>
      </trkpt>
      <trkpt lat="43.31817" lon="6.54846">
        <ele>126</ele>
        <time>2011-08-05T09:16:21Z</time>
      </trkpt>
      <trkpt lat="43.31863" lon="6.54824">
        <ele>119</ele>
        <time>2011-08-05T09:16:30Z</time>
      </trkpt>
      <trkpt lat="43.31905" lon="6.54829">
        <ele>116</ele>
        <time>2011-08-05T09:16:58Z</time>
      </trkpt>
      <trkpt lat="43.31949" lon="6.5482">
        <ele>110</ele>
        <time>2011-08-05T09:17:20Z</time>
      </trkpt>
      <trkpt lat="43.31998" lon="6.54806">
        <ele>107</ele>
        <time>2011-08-05T09:17:31Z</time>
      </trkpt>
      <trkpt lat="43.32043" lon="6.54789">
        <ele>100</ele>
        <time>2011-08-05T09:17:45Z</time>
      </trkpt>
      <trkpt lat="43.32086" lon="6.54769">
        <ele>93</ele>
        <time>2011-08-05T09:18:15Z</time>
      </trkpt>
      <trkpt lat="43.32129" lon="6.5476">
        <ele>90</ele>
        <time>2011-08-05T09:18:52Z</time>
      </trkpt>
      <trkpt lat="43.32176" lon="6.54753">
        <ele>84</ele>
        <time>2011-08-05T09:19:06Z</time>
      </trkpt>
      <trkpt lat="43.32227" lon="6.54752">
        <ele>83</ele>
        <time>2011-08-05T09:19:15Z</time>
      </trkpt>
      <trkpt lat="43.3226" lon="6.5479">
        <ele>83</ele>
        <time>2011-08-05T09:19:29Z</time>
      </trkpt>
      <trkpt lat="43.32294" lon="6.54842">
        <ele>81</ele>
        <time>2011-08-05T09:19:59Z</time>
      </trkpt>
      <trkpt lat="43.32327" lon="6.54889">
        <ele>80</ele>
        <time>2011-08-05T09:20:15Z</time>
      </trkpt>
      <trkpt lat="43.3236" lon="6.54932">
        <ele>80</ele>
        <time>2011-08-05T09:20:33Z</time>
      </trkpt>
      <trkpt lat="43.32402" lon="6.54967">
        <ele>81</ele>
        <time>2011-08-05T09:20:57Z</time>
      </trkpt>
      <trkpt lat="43.32444" lon="6.54989">
        <ele>84</ele>
        <time>2011-08-05T09:21:19Z</time>
      </trkpt>
      <trkpt lat="43.32492" lon="6.54997">
        <ele>86</ele>
        <time>2011-08-05T09:21:40Z</time>
      </trkpt>
      <trkpt lat="43.32537" lon="6.55014">
        <ele>84</ele>
        <time>2011-08-05T09:22:14Z</time>
      </trkpt>
      <trkpt lat="43.32587" lon="6.55011">
        <ele>85</ele>
        <time>2011-08-05T09:22:26Z</time>
      </trkpt>
      <trkpt lat="43.3263" lon="6.54986">
        <ele>84</ele>
        <time>2011-08-05T09:22:36Z</time>
      </trkpt>
      <trkpt lat="43.32668" lon="6.54955">
        <ele>77</ele>
        <time>2011-08-05T09:22:59Z</time>
      </trkpt>
      <trkpt lat="43.32702" lon="6.54908">
        <ele>77</ele>
        <time>2011-08-05T09:23:12Z</time>
      </trkpt>
      <trkpt lat="43.32736" lon="6.54855">
        <ele>75</ele>
        <time>2011-08-05T09:23:21Z</time>
      </trkpt>
      <trkpt lat="43.32773" lon="6.54803">
        <ele>68</ele>
        <time>2011-08-05T09:23:28Z</time>
      </trkpt>
      <trkpt lat="43.32811" lon="6.54765">
        <ele>66</ele>
        <time>2011-08-05T09:23:34Z</time>
      </trkpt>
      <trkpt lat="43.3285" lon="6.54737">
        <ele>62</ele>
        <time>2011-08-05T09:23:51Z</time>
      </trkpt>
      <trkpt lat="43.32888" lon="6.54699">
        <ele>62</ele>
        <time>2011-08-05T09:24:04Z</time>
      </trkpt>
      <trkpt lat="43.32921" lon="6.54654">
        <ele>60</ele>
        <time>2011-08-05T09:24:16Z</time>
      </trkpt>
      <trkpt lat="43.32937" lon="6.54595">
        <ele>60</ele>
        <time>2011-08-05T09:24:54Z</time>
      </trkpt>
      <trkpt lat="43.32922" lon="6.54532">
        <ele>61</ele>
        <time>2011-08-05T09:25:04Z</time>
      </trkpt>
      <trkpt lat="43.32931" lon="6.54471">
        <ele>61</ele>
        <time>2011-08-05T09:25:12Z</time>
      </trkpt>
      <trkpt lat="43.32971" lon="6.54436">
        <ele>60</ele>
        <time>2011-08-05T09:25:22Z</time>
      </trkpt>
      <trkpt lat="43.33013" lon="6.5441">
        <ele>61</ele>
        <time>2011-08-05T09:25:37Z</time>
      </trkpt>
      <trkpt lat="43.33057" lon="6.54387">
        <ele>63</ele>
        <time>2011-08-05T09:25:55Z</time>
      </trkpt>
      <trkpt lat="43.33104" lon="6.54378">
        <ele>67</ele>
        <time>2011-08-05T09:26:13Z</time>
      </trkpt>
      <trkpt lat="43.33144" lon="6.54403">
        <ele>69</ele>
        <time>2011-08-05T09:26:30Z</time>
      </trkpt>
      <trkpt lat="43.33172" lon="6.54392">
        <ele>72</ele>
        <time>2011-08-05T09:26:54Z</time>
      </trkpt>
      <trkpt lat="43.33168" lon="6.54332">
        <ele>71</ele>
        <time>2011-08-05T09:27:16Z</time>
      </trkpt>
      <trkpt lat="43.33171" lon="6.54266">
        <ele>73</ele>
        <time>2011-08-05T09:27:38Z</time>
      </trkpt>
      <trkpt lat="43.33168" lon="6.54203">
        <ele>75</ele>
        <time>2011-08-05T09:27:58Z</time>
      </trkpt>
      <trkpt lat="43.33153" lon="6.54143">
        <ele>73</ele>
        <time>2011-08-05T09:28:12Z</time>
      </trkpt>
      <trkpt lat="43.33131" lon="6.54085">
        <ele>74</ele>
        <time>2011-08-05T09:28:26Z</time>
      </trkpt>
      <trkpt lat="43.33127" lon="6.54021">
        <ele>76</ele>
        <time>2011-08-05T09:28:42Z</time>
      </trkpt>
      <trkpt lat="43.33145" lon="6.53961">
        <ele>78</ele>
        <time>2011-08-05T09:29:00Z</time>
      </trkpt>
      <trkpt lat="43.33145" lon="6.53898">
        <ele>79</ele>
        <time>2011-08-05T09:29:19Z</time>
      </trkpt>
      <trkpt lat="43.33185" lon="6.53883">
        <ele>84</ele>
        <time>2011-08-05T09:29:38Z</time>
      </trkpt>
      <trkpt lat="43.33219" lon="6.53844">
        <ele>86</ele>
        <time>2011-08-05T09:30:00Z</time>
      </trkpt>
      <trkpt lat="43.3324" lon="6.53791">
        <ele>84</ele>
        <time>2011-08-05T09:30:24Z</time>
      </trkpt>
      <trkpt lat="43.33284" lon="6.53769">
        <ele>90</ele>
        <time>2011-08-05T09:31:15Z</time>
      </trkpt>
      <trkpt lat="43.33322" lon="6.53739">
        <ele>90</ele>
        <time>2011-08-05T09:31:38Z</time>
      </trkpt>
      <trkpt lat="43.33361" lon="6.53707">
        <ele>94</ele>
        <time>2011-08-05T09:32:01Z</time>
      </trkpt>
      <trkpt lat="43.33401" lon="6.53676">
        <ele>96</ele>
        <time>2011-08-05T09:32:24Z</time>
      </trkpt>
      <trkpt lat="43.33446" lon="6.53669">
        <ele>99</ele>
        <time>2011-08-05T09:34:14Z</time>
      </trkpt>
      <trkpt lat="43.33461" lon="6.53603">
        <ele>99</ele>
        <time>2011-08-05T09:34:33Z</time>
      </trkpt>
      <trkpt lat="43.33477" lon="6.53541">
        <ele>98</ele>
        <time>2011-08-05T09:35:50Z</time>
      </trkpt>
      <trkpt lat="43.33507" lon="6.5349">
        <ele>101</ele>
        <time>2011-08-05T09:36:11Z</time>
      </trkpt>
      <trkpt lat="43.33544" lon="6.53454">
        <ele>104</ele>
        <time>2011-08-05T09:36:31Z</time>
      </trkpt>
      <trkpt lat="43.33552" lon="6.53409">
        <ele>105</ele>
        <time>2011-08-05T09:36:49Z</time>
      </trkpt>
      <trkpt lat="43.33514" lon="6.53361">
        <ele>102</ele>
        <time>2011-08-05T09:37:01Z</time>
      </trkpt>
      <trkpt lat="43.33507" lon="6.53304">
        <ele>101</ele>
        <time>2011-08-05T09:37:15Z</time>
      </trkpt>
      <trkpt lat="43.33489" lon="6.53241">
        <ele>103</ele>
        <time>2011-08-05T09:37:36Z</time>
      </trkpt>
      <trkpt lat="43.3348" lon="6.53182">
        <ele>104</ele>
        <time>2011-08-05T09:37:52Z</time>
      </trkpt>
      <trkpt lat="43.33456" lon="6.53127">
        <ele>109</ele>
        <time>2011-08-05T09:38:14Z</time>
      </trkpt>
      <trkpt lat="43.33433" lon="6.53072">
        <ele>112</ele>
        <time>2011-08-05T09:38:43Z</time>
      </trkpt>
      <trkpt lat="43.33406" lon="6.53022">
        <ele>119</ele>
        <time>2011-08-05T09:39:12Z</time>
      </trkpt>
      <trkpt lat="43.33375" lon="6.52974">
        <ele>121</ele>
        <time>2011-08-05T09:39:43Z</time>
      </trkpt>
      <trkpt lat="43.33345" lon="6.52924">
        <ele>121</ele>
        <time>2011-08-05T09:40:17Z</time>
      </trkpt>
      <trkpt lat="43.33311" lon="6.52875">
        <ele>115</ele>
        <time>2011-08-05T09:40:27Z</time>
      </trkpt>
      <trkpt lat="43.333" lon="6.52819">
        <ele>112</ele>
        <time>2011-08-05T09:40:44Z</time>
      </trkpt>
      <trkpt lat="43.33317" lon="6.5276">
        <ele>114</ele>
        <time>2011-08-05T09:41:00Z</time>
      </trkpt>
      <trkpt lat="43.33342" lon="6.52708">
        <ele>121</ele>
        <time>2011-08-05T09:41:15Z</time>
      </trkpt>
      <trkpt lat="43.33372" lon="6.52661">
        <ele>118</ele>
        <time>2011-08-05T09:41:31Z</time>
      </trkpt>
      <trkpt lat="43.33395" lon="6.52609">
        <ele>119</ele>
        <time>2011-08-05T09:41:42Z</time>
      </trkpt>
      <trkpt lat="43.33375" lon="6.52559">
        <ele>115</ele>
        <time>2011-08-05T09:41:55Z</time>
      </trkpt>
      <trkpt lat="43.33407" lon="6.52516">
        <ele>117</ele>
        <time>2011-08-05T09:42:10Z</time>
      </trkpt>
      <trkpt lat="43.3345" lon="6.52488">
        <ele>124</ele>
        <time>2011-08-05T09:42:21Z</time>
      </trkpt>
      <trkpt lat="43.33424" lon="6.52465">
        <ele>124</ele>
        <time>2011-08-05T09:42:38Z</time>
      </trkpt>
      <trkpt lat="43.33391" lon="6.52427">
        <ele>118</ele>
        <time>2011-08-05T09:42:55Z</time>
      </trkpt>
      <trkpt lat="43.33386" lon="6.52366">
        <ele>121</ele>
        <time>2011-08-05T09:43:12Z</time>
      </trkpt>
      <trkpt lat="43.334" lon="6.52303">
        <ele>124</ele>
        <time>2011-08-05T09:43:25Z</time>
      </trkpt>
      <trkpt lat="43.33421" lon="6.52249">
        <ele>129</ele>
        <time>2011-08-05T09:43:43Z</time>
      </trkpt>
      <trkpt lat="43.33446" lon="6.522">
        <ele>137</ele>
        <time>2011-08-05T09:44:00Z</time>
      </trkpt>
      <trkpt lat="43.33457" lon="6.52139">
        <ele>137</ele>
        <time>2011-08-05T09:44:17Z</time>
      </trkpt>
      <trkpt lat="43.33466" lon="6.52076">
        <ele>137</ele>
        <time>2011-08-05T09:44:31Z</time>
      </trkpt>
      <trkpt lat="43.33467" lon="6.52009">
        <ele>137</ele>
        <time>2011-08-05T09:44:43Z</time>
      </trkpt>
      <trkpt lat="43.33463" lon="6.51946">
        <ele>137</ele>
        <time>2011-08-05T09:44:55Z</time>
      </trkpt>
      <trkpt lat="43.33447" lon="6.51898">
        <ele>137</ele>
        <time>2011-08-05T09:45:12Z</time>
      </trkpt>
      <trkpt lat="43.33409" lon="6.51864">
        <ele>140</ele>
        <time>2011-08-05T09:45:37Z</time>
      </trkpt>
      <trkpt lat="43.33374" lon="6.51825">
        <ele>143</ele>
        <time>2011-08-05T09:46:02Z</time>
      </trkpt>
      <trkpt lat="43.33341" lon="6.51784">
        <ele>144</ele>
        <time>2011-08-05T09:46:27Z</time>
      </trkpt>
      <trkpt lat="43.33355" lon="6.51726">
        <ele>150</ele>
        <time>2011-08-05T09:46:47Z</time>
      </trkpt>
      <trkpt lat="43.33348" lon="6.51665">
        <ele>152</ele>
        <time>2011-08-05T09:47:06Z</time>
      </trkpt>
      <trkpt lat="43.33336" lon="6.51611">
        <ele>156</ele>
        <time>2011-08-05T09:47:32Z</time>
      </trkpt>
      <trkpt lat="43.33356" lon="6.51552">
        <ele>160</ele>
        <time>2011-08-05T09:47:53Z</time>
      </trkpt>
      <trkpt lat="43.33376" lon="6.51525">
        <ele>162</ele>
        <time>2011-08-05T09:48:40Z</time>
      </trkpt>
      <trkpt lat="43.33377" lon="6.51464">
        <ele>165</ele>
        <time>2011-08-05T09:53:22Z</time>
      </trkpt>
      <trkpt lat="43.33367" lon="6.51407">
        <ele>169</ele>
        <time>2011-08-05T09:53:47Z</time>
      </trkpt>
      <trkpt lat="43.33365" lon="6.51345">
        <ele>170</ele>
        <time>2011-08-05T09:54:16Z</time>
      </trkpt>
      <trkpt lat="43.3337" lon="6.51279">
        <ele>170</ele>
        <time>2011-08-05T09:54:49Z</time>
      </trkpt>
      <trkpt lat="43.33364" lon="6.51218">
        <ele>173</ele>
        <time>2011-08-05T09:55:19Z</time>
      </trkpt>
      <trkpt lat="43.33356" lon="6.51179">
        <ele>175</ele>
        <time>2011-08-05T09:55:50Z</time>
      </trkpt>
      <trkpt lat="43.33374" lon="6.51112">
        <ele>180</ele>
        <time>2011-08-05T09:56:25Z</time>
      </trkpt>
      <trkpt lat="43.33394" lon="6.51052">
        <ele>184</ele>
        <time>2011-08-05T09:56:58Z</time>
      </trkpt>
      <trkpt lat="43.33385" lon="6.50994">
        <ele>190</ele>
        <time>2011-08-05T09:57:31Z</time>
      </trkpt>
      <trkpt lat="43.33366" lon="6.50934">
        <ele>196</ele>
        <time>2011-08-05T09:59:52Z</time>
      </trkpt>
      <trkpt lat="43.33389" lon="6.50921">
        <ele>193</ele>
        <time>2011-08-05T10:00:32Z</time>
      </trkpt>
      <trkpt lat="43.33413" lon="6.50889">
        <ele>196</ele>
        <time>2011-08-05T10:01:23Z</time>
      </trkpt>
      <trkpt lat="43.33418" lon="6.50821">
        <ele>201</ele>
        <time>2011-08-05T10:02:29Z</time>
      </trkpt>
      <trkpt lat="43.33424" lon="6.50758">
        <ele>207</ele>
        <time>2011-08-05T10:03:27Z</time>
      </trkpt>
      <trkpt lat="43.3343" lon="6.50714">
        <ele>214</ele>
        <time>2011-08-05T10:04:02Z</time>
      </trkpt>
      <trkpt lat="43.33468" lon="6.50683">
        <ele>215</ele>
        <time>2011-08-05T10:04:37Z</time>
      </trkpt>
      <trkpt lat="43.33488" lon="6.50625">
        <ele>229</ele>
        <time>2011-08-05T10:05:15Z</time>
      </trkpt>
      <trkpt lat="43.33507" lon="6.506">
        <ele>228</ele>
        <time>2011-08-05T10:05:44Z</time>
      </trkpt>
      <trkpt lat="43.33544" lon="6.50642">
        <ele>226</ele>
        <time>2011-08-05T10:06:11Z</time>
      </trkpt>
      <trkpt lat="43.33592" lon="6.50649">
        <ele>233</ele>
        <time>2011-08-05T10:06:42Z</time>
      </trkpt>
      <trkpt lat="43.33638" lon="6.50656">
        <ele>239</ele>
        <time>2011-08-05T10:07:15Z</time>
      </trkpt>
      <trkpt lat="43.33685" lon="6.50681">
        <ele>241</ele>
        <time>2011-08-05T10:08:13Z</time>
      </trkpt>
      <trkpt lat="43.3373" lon="6.507">
        <ele>246</ele>
        <time>2011-08-05T10:08:46Z</time>
      </trkpt>
      <trkpt lat="43.3376" lon="6.50704">
        <ele>256</ele>
        <time>2011-08-05T10:09:17Z</time>
      </trkpt>
      <trkpt lat="43.33721" lon="6.50669">
        <ele>246</ele>
        <time>2011-08-05T10:09:49Z</time>
      </trkpt>
      <trkpt lat="43.33686" lon="6.50622">
        <ele>256</ele>
        <time>2011-08-05T10:10:29Z</time>
      </trkpt>
      <trkpt lat="43.33648" lon="6.50587">
        <ele>250</ele>
        <time>2011-08-05T10:11:02Z</time>
      </trkpt>
      <trkpt lat="43.3361" lon="6.5055">
        <ele>258</ele>
        <time>2011-08-05T10:11:33Z</time>
      </trkpt>
      <trkpt lat="43.33588" lon="6.50495">
        <ele>264</ele>
        <time>2011-08-05T10:12:09Z</time>
      </trkpt>
      <trkpt lat="43.33567" lon="6.50434">
        <ele>266</ele>
        <time>2011-08-05T10:12:40Z</time>
      </trkpt>
      <trkpt lat="43.33542" lon="6.50372">
        <ele>277</ele>
        <time>2011-08-05T10:13:09Z</time>
      </trkpt>
      <trkpt lat="43.33511" lon="6.50322">
        <ele>287</ele>
        <time>2011-08-05T10:13:41Z</time>
      </trkpt>
      <trkpt lat="43.33481" lon="6.50358">
        <ele>284</ele>
        <time>2011-08-05T10:14:10Z</time>
      </trkpt>
      <trkpt lat="43.33454" lon="6.50409">
        <ele>285</ele>
        <time>2011-08-05T10:14:40Z</time>
      </trkpt>
      <trkpt lat="43.33431" lon="6.50462">
        <ele>275</ele>
        <time>2011-08-05T10:15:11Z</time>
      </trkpt>
      <trkpt lat="43.33405" lon="6.50482">
        <ele>290</ele>
        <time>2011-08-05T10:28:20Z</time>
      </trkpt>
      <trkpt lat="43.33425" lon="6.5042">
        <ele>287</ele>
        <time>2011-08-05T10:29:27Z</time>
      </trkpt>
      <trkpt lat="43.33441" lon="6.50359">
        <ele>292</ele>
        <time>2011-08-05T10:29:57Z</time>
      </trkpt>
      <trkpt lat="43.33454" lon="6.503">
        <ele>305</ele>
        <time>2011-08-05T10:30:28Z</time>
      </trkpt>
      <trkpt lat="43.33462" lon="6.50236">
        <ele>319</ele>
        <time>2011-08-05T10:31:01Z</time>
      </trkpt>
      <trkpt lat="43.33446" lon="6.50277">
        <ele>309</ele>
        <time>2011-08-05T10:31:36Z</time>
      </trkpt>
      <trkpt lat="43.33423" lon="6.50335">
        <ele>306</ele>
        <time>2011-08-05T10:32:09Z</time>
      </trkpt>
      <trkpt lat="43.33396" lon="6.50387">
        <ele>314</ele>
        <time>2011-08-05T10:32:40Z</time>
      </trkpt>
      <trkpt lat="43.33368" lon="6.50431">
        <ele>304</ele>
        <time>2011-08-05T10:33:14Z</time>
      </trkpt>
      <trkpt lat="43.33322" lon="6.50446">
        <ele>314</ele>
        <time>2011-08-05T10:33:44Z</time>
      </trkpt>
      <trkpt lat="43.3328" lon="6.5042">
        <ele>317</ele>
        <time>2011-08-05T10:34:18Z</time>
      </trkpt>
      <trkpt lat="43.33289" lon="6.50414">
        <ele>334</ele>
        <time>2011-08-05T10:34:49Z</time>
      </trkpt>
      <trkpt lat="43.33336" lon="6.50408">
        <ele>324</ele>
        <time>2011-08-05T10:35:24Z</time>
      </trkpt>
      <trkpt lat="43.33365" lon="6.50351">
        <ele>326</ele>
        <time>2011-08-05T10:36:09Z</time>
      </trkpt>
      <trkpt lat="43.33378" lon="6.5029">
        <ele>340</ele>
        <time>2011-08-05T10:36:39Z</time>
      </trkpt>
      <trkpt lat="43.33383" lon="6.50225">
        <ele>352</ele>
        <time>2011-08-05T10:37:13Z</time>
      </trkpt>
      <trkpt lat="43.33389" lon="6.50161">
        <ele>356</ele>
        <time>2011-08-05T10:37:44Z</time>
      </trkpt>
      <trkpt lat="43.334" lon="6.50099">
        <ele>358</ele>
        <time>2011-08-05T10:38:16Z</time>
      </trkpt>
      <trkpt lat="43.33405" lon="6.50031">
        <ele>362</ele>
        <time>2011-08-05T10:38:46Z</time>
      </trkpt>
      <trkpt lat="43.33394" lon="6.49977">
        <ele>360</ele>
        <time>2011-08-05T10:39:50Z</time>
      </trkpt>
      <trkpt lat="43.33361" lon="6.49933">
        <ele>359</ele>
        <time>2011-08-05T10:40:06Z</time>
      </trkpt>
      <trkpt lat="43.33331" lon="6.49875">
        <ele>348</ele>
        <time>2011-08-05T10:40:16Z</time>
      </trkpt>
      <trkpt lat="43.33288" lon="6.49903">
        <ele>350</ele>
        <time>2011-08-05T10:40:26Z</time>
      </trkpt>
      <trkpt lat="43.33267" lon="6.49851">
        <ele>347</ele>
        <time>2011-08-05T10:40:35Z</time>
      </trkpt>
      <trkpt lat="43.33228" lon="6.49873">
        <ele>357</ele>
        <time>2011-08-05T10:40:44Z</time>
      </trkpt>
      <trkpt lat="43.33219" lon="6.49808">
        <ele>352</ele>
        <time>2011-08-05T10:41:03Z</time>
      </trkpt>
      <trkpt lat="43.33201" lon="6.49752">
        <ele>353</ele>
        <time>2011-08-05T10:41:23Z</time>
      </trkpt>
      <trkpt lat="43.33165" lon="6.49716">
        <ele>359</ele>
        <time>2011-08-05T10:41:42Z</time>
      </trkpt>
      <trkpt lat="43.33125" lon="6.49681">
        <ele>359</ele>
        <time>2011-08-05T10:42:05Z</time>
      </trkpt>
      <trkpt lat="43.33086" lon="6.49649">
        <ele>354</ele>
        <time>2011-08-05T10:42:25Z</time>
      </trkpt>
      <trkpt lat="43.33045" lon="6.4962">
        <ele>360</ele>
        <time>2011-08-05T10:42:47Z</time>
      </trkpt>
      <trkpt lat="43.32997" lon="6.49624">
        <ele>369</ele>
        <time>2011-08-05T10:43:11Z</time>
      </trkpt>
      <trkpt lat="43.32951" lon="6.49601">
        <ele>370</ele>
        <time>2011-08-05T10:43:37Z</time>
      </trkpt>
      <trkpt lat="43.329" lon="6.49587">
        <ele>373</ele>
        <time>2011-08-05T10:43:55Z</time>
      </trkpt>
      <trkpt lat="43.32871" lon="6.49534">
        <ele>364</ele>
        <time>2011-08-05T10:44:08Z</time>
      </trkpt>
      <trkpt lat="43.32838" lon="6.49481">
        <ele>357</ele>
        <time>2011-08-05T10:44:18Z</time>
      </trkpt>
      <trkpt lat="43.32792" lon="6.49453">
        <ele>359</ele>
        <time>2011-08-05T10:44:26Z</time>
      </trkpt>
      <trkpt lat="43.32748" lon="6.49409">
        <ele>358</ele>
        <time>2011-08-05T10:44:49Z</time>
      </trkpt>
      <trkpt lat="43.32719" lon="6.49357">
        <ele>356</ele>
        <time>2011-08-05T10:44:57Z</time>
      </trkpt>
      <trkpt lat="43.32686" lon="6.49309">
        <ele>357</ele>
        <time>2011-08-05T10:45:06Z</time>
      </trkpt>
      <trkpt lat="43.32669" lon="6.49341">
        <ele>355</ele>
        <time>2011-08-05T10:45:32Z</time>
      </trkpt>
      <trkpt lat="43.32655" lon="6.49402">
        <ele>352</ele>
        <time>2011-08-05T10:45:51Z</time>
      </trkpt>
      <trkpt lat="43.32668" lon="6.49465">
        <ele>356</ele>
        <time>2011-08-05T10:46:04Z</time>
      </trkpt>
      <trkpt lat="43.32686" lon="6.49531">
        <ele>357</ele>
        <time>2011-08-05T10:46:14Z</time>
      </trkpt>
      <trkpt lat="43.327" lon="6.49587">
        <ele>361</ele>
        <time>2011-08-05T10:46:22Z</time>
      </trkpt>
      <trkpt lat="43.32682" lon="6.49646">
        <ele>361</ele>
        <time>2011-08-05T10:46:46Z</time>
      </trkpt>
      <trkpt lat="43.32689" lon="6.49716">
        <ele>369</ele>
        <time>2011-08-05T10:47:14Z</time>
      </trkpt>
      <trkpt lat="43.3267" lon="6.49776">
        <ele>377</ele>
        <time>2011-08-05T10:47:35Z</time>
      </trkpt>
      <trkpt lat="43.32623" lon="6.498">
        <ele>370</ele>
        <time>2011-08-05T10:47:54Z</time>
      </trkpt>
      <trkpt lat="43.32584" lon="6.49845">
        <ele>376</ele>
        <time>2011-08-05T10:48:19Z</time>
      </trkpt>
      <trkpt lat="43.32539" lon="6.49876">
        <ele>373</ele>
        <time>2011-08-05T10:48:35Z</time>
      </trkpt>
      <trkpt lat="43.32498" lon="6.49912">
        <ele>373</ele>
        <time>2011-08-05T10:48:52Z</time>
      </trkpt>
      <trkpt lat="43.32473" lon="6.49971">
        <ele>372</ele>
        <time>2011-08-05T10:49:14Z</time>
      </trkpt>
      <trkpt lat="43.32487" lon="6.50025">
        <ele>372</ele>
        <time>2011-08-05T10:49:35Z</time>
      </trkpt>
      <trkpt lat="43.32527" lon="6.50045">
        <ele>381</ele>
        <time>2011-08-05T10:49:54Z</time>
      </trkpt>
      <trkpt lat="43.32565" lon="6.50091">
        <ele>381</ele>
        <time>2011-08-05T10:50:07Z</time>
      </trkpt>
      <trkpt lat="43.32591" lon="6.50147">
        <ele>388</ele>
        <time>2011-08-05T10:50:16Z</time>
      </trkpt>
      <trkpt lat="43.32564" lon="6.50188">
        <ele>383</ele>
        <time>2011-08-05T10:50:26Z</time>
      </trkpt>
      <trkpt lat="43.32514" lon="6.5018">
        <ele>379</ele>
        <time>2011-08-05T10:50:35Z</time>
      </trkpt>
      <trkpt lat="43.32464" lon="6.50183">
        <ele>377</ele>
        <time>2011-08-05T10:50:41Z</time>
      </trkpt>
      <trkpt lat="43.32417" lon="6.50181">
        <ele>373</ele>
        <time>2011-08-05T10:50:46Z</time>
      </trkpt>
      <trkpt lat="43.32363" lon="6.50189">
        <ele>372</ele>
        <time>2011-08-05T10:50:52Z</time>
      </trkpt>
      <trkpt lat="43.32318" lon="6.50175">
        <ele>367</ele>
        <time>2011-08-05T10:50:57Z</time>
      </trkpt>
      <trkpt lat="43.32265" lon="6.50168">
        <ele>366</ele>
        <time>2011-08-05T10:51:02Z</time>
      </trkpt>
      <trkpt lat="43.32217" lon="6.50157">
        <ele>358</ele>
        <time>2011-08-05T10:51:07Z</time>
      </trkpt>
      <trkpt lat="43.32169" lon="6.5016">
        <ele>360</ele>
        <time>2011-08-05T10:51:33Z</time>
      </trkpt>
      <trkpt lat="43.32121" lon="6.50186">
        <ele>358</ele>
        <time>2011-08-05T10:51:43Z</time>
      </trkpt>
      <trkpt lat="43.32079" lon="6.50215">
        <ele>348</ele>
        <time>2011-08-05T10:51:50Z</time>
      </trkpt>
      <trkpt lat="43.3204" lon="6.50249">
        <ele>346</ele>
        <time>2011-08-05T10:51:56Z</time>
      </trkpt>
      <trkpt lat="43.31994" lon="6.50277">
        <ele>338</ele>
        <time>2011-08-05T10:52:02Z</time>
      </trkpt>
      <trkpt lat="43.31941" lon="6.50284">
        <ele>335</ele>
        <time>2011-08-05T10:52:08Z</time>
      </trkpt>
      <trkpt lat="43.3189" lon="6.50285">
        <ele>326</ele>
        <time>2011-08-05T10:52:14Z</time>
      </trkpt>
      <trkpt lat="43.31841" lon="6.50274">
        <ele>324</ele>
        <time>2011-08-05T10:52:21Z</time>
      </trkpt>
      <trkpt lat="43.31794" lon="6.50279">
        <ele>316</ele>
        <time>2011-08-05T10:52:28Z</time>
      </trkpt>
      <trkpt lat="43.31786" lon="6.50266">
        <ele>316</ele>
        <time>2011-08-05T10:52:40Z</time>
      </trkpt>
      <trkpt lat="43.31834" lon="6.50247">
        <ele>322</ele>
        <time>2011-08-05T10:52:50Z</time>
      </trkpt>
      <trkpt lat="43.31799" lon="6.50223">
        <ele>311</ele>
        <time>2011-08-05T10:52:59Z</time>
      </trkpt>
      <trkpt lat="43.31745" lon="6.50237">
        <ele>307</ele>
        <time>2011-08-05T10:53:05Z</time>
      </trkpt>
      <trkpt lat="43.317" lon="6.50253">
        <ele>304</ele>
        <time>2011-08-05T10:53:10Z</time>
      </trkpt>
      <trkpt lat="43.31649" lon="6.50259">
        <ele>297</ele>
        <time>2011-08-05T10:53:15Z</time>
      </trkpt>
      <trkpt lat="43.31595" lon="6.50261">
        <ele>294</ele>
        <time>2011-08-05T10:53:20Z</time>
      </trkpt>
      <trkpt lat="43.31549" lon="6.50262">
        <ele>287</ele>
        <time>2011-08-05T10:53:24Z</time>
      </trkpt>
      <trkpt lat="43.31494" lon="6.50258">
        <ele>284</ele>
        <time>2011-08-05T10:53:29Z</time>
      </trkpt>
      <trkpt lat="43.31452" lon="6.50242">
        <ele>279</ele>
        <time>2011-08-05T10:53:34Z</time>
      </trkpt>
      <trkpt lat="43.31406" lon="6.50221">
        <ele>277</ele>
        <time>2011-08-05T10:53:39Z</time>
      </trkpt>
      <trkpt lat="43.31359" lon="6.502">
        <ele>275</ele>
        <time>2011-08-05T10:53:44Z</time>
      </trkpt>
      <trkpt lat="43.31316" lon="6.50169">
        <ele>271</ele>
        <time>2011-08-05T10:53:49Z</time>
      </trkpt>
      <trkpt lat="43.31271" lon="6.50142">
        <ele>260</ele>
        <time>2011-08-05T10:53:56Z</time>
      </trkpt>
      <trkpt lat="43.31242" lon="6.50192">
        <ele>259</ele>
        <time>2011-08-05T10:54:04Z</time>
      </trkpt>
      <trkpt lat="43.31217" lon="6.50256">
        <ele>258</ele>
        <time>2011-08-05T10:54:10Z</time>
      </trkpt>
      <trkpt lat="43.31205" lon="6.5031">
        <ele>254</ele>
        <time>2011-08-05T10:54:19Z</time>
      </trkpt>
      <trkpt lat="43.31259" lon="6.50309">
        <ele>261</ele>
        <time>2011-08-05T10:54:29Z</time>
      </trkpt>
      <trkpt lat="43.31306" lon="6.5032">
        <ele>264</ele>
        <time>2011-08-05T10:54:36Z</time>
      </trkpt>
      <trkpt lat="43.31334" lon="6.50371">
        <ele>255</ele>
        <time>2011-08-05T10:54:42Z</time>
      </trkpt>
      <trkpt lat="43.31381" lon="6.504">
        <ele>254</ele>
        <time>2011-08-05T10:54:49Z</time>
      </trkpt>
      <trkpt lat="43.3143" lon="6.504">
        <ele>258</ele>
        <time>2011-08-05T10:54:55Z</time>
      </trkpt>
      <trkpt lat="43.31475" lon="6.50431">
        <ele>245</ele>
        <time>2011-08-05T10:55:02Z</time>
      </trkpt>
      <trkpt lat="43.31521" lon="6.50457">
        <ele>243</ele>
        <time>2011-08-05T10:55:09Z</time>
      </trkpt>
      <trkpt lat="43.31575" lon="6.50448">
        <ele>246</ele>
        <time>2011-08-05T10:55:16Z</time>
      </trkpt>
      <trkpt lat="43.31611" lon="6.50476">
        <ele>245</ele>
        <time>2011-08-05T10:55:24Z</time>
      </trkpt>
      <trkpt lat="43.31652" lon="6.50511">
        <ele>232</ele>
        <time>2011-08-05T10:55:31Z</time>
      </trkpt>
      <trkpt lat="43.31703" lon="6.50527">
        <ele>234</ele>
        <time>2011-08-05T10:55:37Z</time>
      </trkpt>
      <trkpt lat="43.31745" lon="6.50558">
        <ele>230</ele>
        <time>2011-08-05T10:55:42Z</time>
      </trkpt>
      <trkpt lat="43.31789" lon="6.50586">
        <ele>222</ele>
        <time>2011-08-05T10:55:47Z</time>
      </trkpt>
      <trkpt lat="43.31835" lon="6.5061">
        <ele>230</ele>
        <time>2011-08-05T10:55:52Z</time>
      </trkpt>
      <trkpt lat="43.3187" lon="6.50651">
        <ele>227</ele>
        <time>2011-08-05T10:55:58Z</time>
      </trkpt>
      <trkpt lat="43.3191" lon="6.50691">
        <ele>223</ele>
        <time>2011-08-05T10:56:04Z</time>
      </trkpt>
      <trkpt lat="43.31888" lon="6.5072">
        <ele>222</ele>
        <time>2011-08-05T10:56:15Z</time>
      </trkpt>
      <trkpt lat="43.31841" lon="6.50693">
        <ele>220</ele>
        <time>2011-08-05T10:56:23Z</time>
      </trkpt>
      <trkpt lat="43.31793" lon="6.50672">
        <ele>218</ele>
        <time>2011-08-05T10:56:29Z</time>
      </trkpt>
      <trkpt lat="43.31741" lon="6.50656">
        <ele>213</ele>
        <time>2011-08-05T10:56:35Z</time>
      </trkpt>
      <trkpt lat="43.31692" lon="6.50649">
        <ele>213</ele>
        <time>2011-08-05T10:56:41Z</time>
      </trkpt>
      <trkpt lat="43.31646" lon="6.50664">
        <ele>209</ele>
        <time>2011-08-05T10:56:48Z</time>
      </trkpt>
      <trkpt lat="43.31602" lon="6.50667">
        <ele>208</ele>
        <time>2011-08-05T10:56:56Z</time>
      </trkpt>
      <trkpt lat="43.31552" lon="6.50665">
        <ele>205</ele>
        <time>2011-08-05T10:57:03Z</time>
      </trkpt>
      <trkpt lat="43.31505" lon="6.5065">
        <ele>203</ele>
        <time>2011-08-05T10:57:09Z</time>
      </trkpt>
      <trkpt lat="43.31454" lon="6.50628">
        <ele>202</ele>
        <time>2011-08-05T10:57:15Z</time>
      </trkpt>
      <trkpt lat="43.31402" lon="6.5061">
        <ele>199</ele>
        <time>2011-08-05T10:57:21Z</time>
      </trkpt>
      <trkpt lat="43.31351" lon="6.50613">
        <ele>199</ele>
        <time>2011-08-05T10:57:27Z</time>
      </trkpt>
      <trkpt lat="43.31302" lon="6.50627">
        <ele>196</ele>
        <time>2011-08-05T10:57:34Z</time>
      </trkpt>
      <trkpt lat="43.3126" lon="6.50643">
        <ele>195</ele>
        <time>2011-08-05T10:57:46Z</time>
      </trkpt>
      <trkpt lat="43.31214" lon="6.50663">
        <ele>193</ele>
        <time>2011-08-05T10:58:04Z</time>
      </trkpt>
      <trkpt lat="43.31165" lon="6.50665">
        <ele>194</ele>
        <time>2011-08-05T10:58:23Z</time>
      </trkpt>
      <trkpt lat="43.31119" lon="6.50678">
        <ele>200</ele>
        <time>2011-08-05T10:58:41Z</time>
      </trkpt>
      <trkpt lat="43.31076" lon="6.50699">
        <ele>198</ele>
        <time>2011-08-05T10:58:56Z</time>
      </trkpt>
      <trkpt lat="43.31034" lon="6.50731">
        <ele>200</ele>
        <time>2011-08-05T10:59:13Z</time>
      </trkpt>
      <trkpt lat="43.31031" lon="6.50797">
        <ele>199</ele>
        <time>2011-08-05T10:59:28Z</time>
      </trkpt>
      <trkpt lat="43.31066" lon="6.50832">
        <ele>203</ele>
        <time>2011-08-05T10:59:46Z</time>
      </trkpt>
      <trkpt lat="43.31103" lon="6.50867">
        <ele>210</ele>
        <time>2011-08-05T11:00:08Z</time>
      </trkpt>
      <trkpt lat="43.31128" lon="6.50918">
        <ele>206</ele>
        <time>2011-08-05T11:00:31Z</time>
      </trkpt>
      <trkpt lat="43.3116" lon="6.50963">
        <ele>207</ele>
        <time>2011-08-05T11:00:55Z</time>
      </trkpt>
      <trkpt lat="43.31189" lon="6.5101">
        <ele>220</ele>
        <time>2011-08-05T11:01:19Z</time>
      </trkpt>
      <trkpt lat="43.31188" lon="6.51078">
        <ele>217</ele>
        <time>2011-08-05T11:01:42Z</time>
      </trkpt>
      <trkpt lat="43.31197" lon="6.51131">
        <ele>217</ele>
        <time>2011-08-05T11:02:06Z</time>
      </trkpt>
      <trkpt lat="43.31229" lon="6.51179">
        <ele>218</ele>
        <time>2011-08-05T11:03:08Z</time>
      </trkpt>
      <trkpt lat="43.31264" lon="6.5122">
        <ele>232</ele>
        <time>2011-08-05T11:03:28Z</time>
      </trkpt>
      <trkpt lat="43.31295" lon="6.51264">
        <ele>228</ele>
        <time>2011-08-05T11:03:51Z</time>
      </trkpt>
      <trkpt lat="43.31322" lon="6.51315">
        <ele>230</ele>
        <time>2011-08-05T11:04:14Z</time>
      </trkpt>
      <trkpt lat="43.31327" lon="6.51377">
        <ele>229</ele>
        <time>2011-08-05T11:04:32Z</time>
      </trkpt>
      <trkpt lat="43.31279" lon="6.51411">
        <ele>222</ele>
        <time>2011-08-05T11:04:41Z</time>
      </trkpt>
      <trkpt lat="43.31262" lon="6.5147">
        <ele>221</ele>
        <time>2011-08-05T11:04:48Z</time>
      </trkpt>
      <trkpt lat="43.31278" lon="6.5153">
        <ele>223</ele>
        <time>2011-08-05T11:04:54Z</time>
      </trkpt>
      <trkpt lat="43.31288" lon="6.51585">
        <ele>226</ele>
        <time>2011-08-05T11:05:03Z</time>
      </trkpt>
      <trkpt lat="43.31268" lon="6.51644">
        <ele>223</ele>
        <time>2011-08-05T11:05:17Z</time>
      </trkpt>
      <trkpt lat="43.31262" lon="6.51706">
        <ele>223</ele>
        <time>2011-08-05T11:05:27Z</time>
      </trkpt>
      <trkpt lat="43.3126" lon="6.5177">
        <ele>213</ele>
        <time>2011-08-05T11:05:34Z</time>
      </trkpt>
      <trkpt lat="43.31282" lon="6.51824">
        <ele>210</ele>
        <time>2011-08-05T11:05:40Z</time>
      </trkpt>
      <trkpt lat="43.31334" lon="6.51833">
        <ele>213</ele>
        <time>2011-08-05T11:05:47Z</time>
      </trkpt>
      <trkpt lat="43.31384" lon="6.51837">
        <ele>209</ele>
        <time>2011-08-05T11:05:54Z</time>
      </trkpt>
      <trkpt lat="43.31428" lon="6.51876">
        <ele>208</ele>
        <time>2011-08-05T11:06:01Z</time>
      </trkpt>
      <trkpt lat="43.31464" lon="6.51906">
        <ele>205</ele>
        <time>2011-08-05T11:06:08Z</time>
      </trkpt>
      <trkpt lat="43.31516" lon="6.51894">
        <ele>207</ele>
        <time>2011-08-05T11:06:15Z</time>
      </trkpt>
      <trkpt lat="43.31562" lon="6.51909">
        <ele>206</ele>
        <time>2011-08-05T11:06:21Z</time>
      </trkpt>
      <trkpt lat="43.31556" lon="6.51943">
        <ele>207</ele>
        <time>2011-08-05T11:06:31Z</time>
      </trkpt>
      <trkpt lat="43.31511" lon="6.51961">
        <ele>206</ele>
        <time>2011-08-05T11:06:51Z</time>
      </trkpt>
      <trkpt lat="43.31471" lon="6.5199">
        <ele>202</ele>
        <time>2011-08-05T11:08:42Z</time>
      </trkpt>
      <trkpt lat="43.31464" lon="6.52049">
        <ele>208</ele>
        <time>2011-08-05T11:09:09Z</time>
      </trkpt>
      <trkpt lat="43.31476" lon="6.52108">
        <ele>215</ele>
        <time>2011-08-05T11:09:35Z</time>
      </trkpt>
      <trkpt lat="43.31496" lon="6.52157">
        <ele>218</ele>
        <time>2011-08-05T11:10:34Z</time>
      </trkpt>
      <trkpt lat="43.31468" lon="6.52202">
        <ele>219</ele>
        <time>2011-08-05T11:11:01Z</time>
      </trkpt>
      <trkpt lat="43.31462" lon="6.52259">
        <ele>228</ele>
        <time>2011-08-05T11:11:26Z</time>
      </trkpt>
      <trkpt lat="43.31423" lon="6.52288">
        <ele>228</ele>
        <time>2011-08-05T11:11:54Z</time>
      </trkpt>
      <trkpt lat="43.31379" lon="6.52296">
        <ele>226</ele>
        <time>2011-08-05T11:12:18Z</time>
      </trkpt>
      <trkpt lat="43.3134" lon="6.52332">
        <ele>231</ele>
        <time>2011-08-05T11:12:44Z</time>
      </trkpt>
      <trkpt lat="43.31298" lon="6.52357">
        <ele>233</ele>
        <time>2011-08-05T11:13:03Z</time>
      </trkpt>
      <trkpt lat="43.31266" lon="6.52408">
        <ele>233</ele>
        <time>2011-08-05T11:13:22Z</time>
      </trkpt>
      <trkpt lat="43.31258" lon="6.52468">
        <ele>238</ele>
        <time>2011-08-05T11:13:37Z</time>
      </trkpt>
      <trkpt lat="43.3129" lon="6.52513">
        <ele>244</ele>
        <time>2011-08-05T11:13:58Z</time>
      </trkpt>
      <trkpt lat="43.31325" lon="6.52551">
        <ele>246</ele>
        <time>2011-08-05T11:14:23Z</time>
      </trkpt>
      <trkpt lat="43.31365" lon="6.52581">
        <ele>250</ele>
        <time>2011-08-05T11:14:48Z</time>
      </trkpt>
      <trkpt lat="43.31386" lon="6.52631">
        <ele>252</ele>
        <time>2011-08-05T11:15:12Z</time>
      </trkpt>
      <trkpt lat="43.31357" lon="6.52656">
        <ele>253</ele>
        <time>2011-08-05T11:16:33Z</time>
      </trkpt>
      <trkpt lat="43.31312" lon="6.52633">
        <ele>255</ele>
        <time>2011-08-05T11:17:03Z</time>
      </trkpt>
      <trkpt lat="43.31266" lon="6.52591">
        <ele>251</ele>
        <time>2011-08-05T11:17:13Z</time>
      </trkpt>
      <trkpt lat="43.31221" lon="6.52576">
        <ele>243</ele>
        <time>2011-08-05T11:17:21Z</time>
      </trkpt>
      <trkpt lat="43.31172" lon="6.52578">
        <ele>244</ele>
        <time>2011-08-05T11:17:29Z</time>
      </trkpt>
      <trkpt lat="43.31121" lon="6.52581">
        <ele>241</ele>
        <time>2011-08-05T11:18:08Z</time>
      </trkpt>
      <trkpt lat="43.31073" lon="6.52582">
        <ele>241</ele>
        <time>2011-08-05T11:18:16Z</time>
      </trkpt>
      <trkpt lat="43.31059" lon="6.52548">
        <ele>243</ele>
        <time>2011-08-05T11:18:30Z</time>
      </trkpt>
      <trkpt lat="43.31088" lon="6.52501">
        <ele>242</ele>
        <time>2011-08-05T11:18:55Z</time>
      </trkpt>
      <trkpt lat="43.31094" lon="6.52439">
        <ele>242</ele>
        <time>2011-08-05T11:19:20Z</time>
      </trkpt>
      <trkpt lat="43.31084" lon="6.5238">
        <ele>246</ele>
        <time>2011-08-05T11:20:13Z</time>
      </trkpt>
      <trkpt lat="43.31093" lon="6.52319">
        <ele>250</ele>
        <time>2011-08-05T11:20:39Z</time>
      </trkpt>
      <trkpt lat="43.31068" lon="6.5227">
        <ele>255</ele>
        <time>2011-08-05T11:21:06Z</time>
      </trkpt>
      <trkpt lat="43.31028" lon="6.52236">
        <ele>250</ele>
        <time>2011-08-05T11:21:31Z</time>
      </trkpt>
      <trkpt lat="43.30984" lon="6.52234">
        <ele>254</ele>
        <time>2011-08-05T11:21:56Z</time>
      </trkpt>
      <trkpt lat="43.30944" lon="6.52264">
        <ele>262</ele>
        <time>2011-08-05T11:22:13Z</time>
      </trkpt>
      <trkpt lat="43.30898" lon="6.52267">
        <ele>263</ele>
        <time>2011-08-05T11:22:28Z</time>
      </trkpt>
      <trkpt lat="43.30854" lon="6.52259">
        <ele>265</ele>
        <time>2011-08-05T11:22:44Z</time>
      </trkpt>
      <trkpt lat="43.30809" lon="6.52226">
        <ele>262</ele>
        <time>2011-08-05T11:23:05Z</time>
      </trkpt>
      <trkpt lat="43.3076" lon="6.52223">
        <ele>265</ele>
        <time>2011-08-05T11:23:19Z</time>
      </trkpt>
      <trkpt lat="43.30711" lon="6.52209">
        <ele>270</ele>
        <time>2011-08-05T11:23:34Z</time>
      </trkpt>
      <trkpt lat="43.30672" lon="6.52175">
        <ele>269</ele>
        <time>2011-08-05T11:23:53Z</time>
      </trkpt>
      <trkpt lat="43.30629" lon="6.5215">
        <ele>268</ele>
        <time>2011-08-05T11:24:08Z</time>
      </trkpt>
      <trkpt lat="43.30586" lon="6.52116">
        <ele>266</ele>
        <time>2011-08-05T11:24:26Z</time>
      </trkpt>
      <trkpt lat="43.30539" lon="6.52093">
        <ele>274</ele>
        <time>2011-08-05T11:24:42Z</time>
      </trkpt>
      <trkpt lat="43.30495" lon="6.52079">
        <ele>272</ele>
        <time>2011-08-05T11:24:55Z</time>
      </trkpt>
      <trkpt lat="43.30446" lon="6.52094">
        <ele>278</ele>
        <time>2011-08-05T11:25:16Z</time>
      </trkpt>
      <trkpt lat="43.30404" lon="6.52068">
        <ele>272</ele>
        <time>2011-08-05T11:25:37Z</time>
      </trkpt>
      <trkpt lat="43.30355" lon="6.52053">
        <ele>270</ele>
        <time>2011-08-05T11:26:12Z</time>
      </trkpt>
      <trkpt lat="43.30311" lon="6.52043">
        <ele>269</ele>
        <time>2011-08-05T11:26:30Z</time>
      </trkpt>
      <trkpt lat="43.3027" lon="6.52009">
        <ele>271</ele>
        <time>2011-08-05T11:26:43Z</time>
      </trkpt>
      <trkpt lat="43.30227" lon="6.51994">
        <ele>277</ele>
        <time>2011-08-05T11:26:55Z</time>
      </trkpt>
      <trkpt lat="43.30171" lon="6.51984">
        <ele>274</ele>
        <time>2011-08-05T11:27:04Z</time>
      </trkpt>
      <trkpt lat="43.30126" lon="6.5197">
        <ele>267</ele>
        <time>2011-08-05T11:27:14Z</time>
      </trkpt>
      <trkpt lat="43.3009" lon="6.51928">
        <ele>268</ele>
        <time>2011-08-05T11:27:24Z</time>
      </trkpt>
      <trkpt lat="43.30044" lon="6.51914">
        <ele>269</ele>
        <time>2011-08-05T11:27:31Z</time>
      </trkpt>
      <trkpt lat="43.29996" lon="6.51919">
        <ele>255</ele>
        <time>2011-08-05T11:27:38Z</time>
      </trkpt>
      <trkpt lat="43.29949" lon="6.5191">
        <ele>253</ele>
        <time>2011-08-05T11:27:47Z</time>
      </trkpt>
      <trkpt lat="43.2991" lon="6.51869">
        <ele>241</ele>
        <time>2011-08-05T11:27:58Z</time>
      </trkpt>
      <trkpt lat="43.29874" lon="6.51829">
        <ele>247</ele>
        <time>2011-08-05T11:28:05Z</time>
      </trkpt>
      <trkpt lat="43.29835" lon="6.51795">
        <ele>243</ele>
        <time>2011-08-05T11:28:12Z</time>
      </trkpt>
      <trkpt lat="43.29831" lon="6.51735">
        <ele>243</ele>
        <time>2011-08-05T11:28:23Z</time>
      </trkpt>
      <trkpt lat="43.29789" lon="6.51717">
        <ele>244</ele>
        <time>2011-08-05T11:28:32Z</time>
      </trkpt>
      <trkpt lat="43.29747" lon="6.51744">
        <ele>232</ele>
        <time>2011-08-05T11:28:41Z</time>
      </trkpt>
      <trkpt lat="43.297" lon="6.51746">
        <ele>238</ele>
        <time>2011-08-05T11:28:50Z</time>
      </trkpt>
      <trkpt lat="43.29659" lon="6.51781">
        <ele>222</ele>
        <time>2011-08-05T11:28:57Z</time>
      </trkpt>
      <trkpt lat="43.29616" lon="6.51795">
        <ele>219</ele>
        <time>2011-08-05T11:29:03Z</time>
      </trkpt>
      <trkpt lat="43.2957" lon="6.51809">
        <ele>213</ele>
        <time>2011-08-05T11:29:11Z</time>
      </trkpt>
      <trkpt lat="43.29524" lon="6.51819">
        <ele>210</ele>
        <time>2011-08-05T11:29:21Z</time>
      </trkpt>
      <trkpt lat="43.29475" lon="6.51798">
        <ele>200</ele>
        <time>2011-08-05T11:29:28Z</time>
      </trkpt>
      <trkpt lat="43.29431" lon="6.5178">
        <ele>196</ele>
        <time>2011-08-05T11:29:36Z</time>
      </trkpt>
      <trkpt lat="43.29386" lon="6.51788">
        <ele>184</ele>
        <time>2011-08-05T11:29:43Z</time>
      </trkpt>
      <trkpt lat="43.29339" lon="6.51783">
        <ele>182</ele>
        <time>2011-08-05T11:29:51Z</time>
      </trkpt>
      <trkpt lat="43.29311" lon="6.51802">
        <ele>174</ele>
        <time>2011-08-05T11:30:02Z</time>
      </trkpt>
      <trkpt lat="43.29298" lon="6.51834">
        <ele>167</ele>
        <time>2011-08-05T11:30:13Z</time>
      </trkpt>
      <trkpt lat="43.29248" lon="6.51851">
        <ele>159</ele>
        <time>2011-08-05T11:30:21Z</time>
      </trkpt>
      <trkpt lat="43.29216" lon="6.51805">
        <ele>161</ele>
        <time>2011-08-05T11:30:28Z</time>
      </trkpt>
      <trkpt lat="43.29169" lon="6.51789">
        <ele>158</ele>
        <time>2011-08-05T11:30:35Z</time>
      </trkpt>
      <trkpt lat="43.29125" lon="6.51782">
        <ele>145</ele>
        <time>2011-08-05T11:30:44Z</time>
      </trkpt>
      <trkpt lat="43.29084" lon="6.51746">
        <ele>143</ele>
        <time>2011-08-05T11:30:50Z</time>
      </trkpt>
      <trkpt lat="43.29042" lon="6.51714">
        <ele>138</ele>
        <time>2011-08-05T11:30:55Z</time>
      </trkpt>
      <trkpt lat="43.28999" lon="6.51685">
        <ele>132</ele>
        <time>2011-08-05T11:31:00Z</time>
      </trkpt>
      <trkpt lat="43.28952" lon="6.51671">
        <ele>130</ele>
        <time>2011-08-05T11:31:06Z</time>
      </trkpt>
      <trkpt lat="43.28984" lon="6.5171">
        <ele>128</ele>
        <time>2011-08-05T11:31:17Z</time>
      </trkpt>
      <trkpt lat="43.28974" lon="6.51732">
        <ele>125</ele>
        <time>2011-08-05T11:31:28Z</time>
      </trkpt>
      <trkpt lat="43.28928" lon="6.51747">
        <ele>120</ele>
        <time>2011-08-05T11:31:36Z</time>
      </trkpt>
      <trkpt lat="43.2889" lon="6.51775">
        <ele>103</ele>
        <time>2011-08-05T11:31:44Z</time>
      </trkpt>
      <trkpt lat="43.28843" lon="6.51757">
        <ele>104</ele>
        <time>2011-08-05T11:31:50Z</time>
      </trkpt>
      <trkpt lat="43.28794" lon="6.51732">
        <ele>105</ele>
        <time>2011-08-05T11:31:56Z</time>
      </trkpt>
      <trkpt lat="43.28752" lon="6.51708">
        <ele>105</ele>
        <time>2011-08-05T11:32:01Z</time>
      </trkpt>
      <trkpt lat="43.28697" lon="6.51699">
        <ele>93</ele>
        <time>2011-08-05T11:32:07Z</time>
      </trkpt>
      <trkpt lat="43.28647" lon="6.51711">
        <ele>84</ele>
        <time>2011-08-05T11:32:12Z</time>
      </trkpt>
      <trkpt lat="43.28597" lon="6.5172">
        <ele>81</ele>
        <time>2011-08-05T11:32:17Z</time>
      </trkpt>
      <trkpt lat="43.2855" lon="6.5171">
        <ele>78</ele>
        <time>2011-08-05T11:32:21Z</time>
      </trkpt>
      <trkpt lat="43.28503" lon="6.51716">
        <ele>76</ele>
        <time>2011-08-05T11:32:26Z</time>
      </trkpt>
      <trkpt lat="43.28455" lon="6.51715">
        <ele>69</ele>
        <time>2011-08-05T11:32:31Z</time>
      </trkpt>
      <trkpt lat="43.28411" lon="6.51696">
        <ele>62</ele>
        <time>2011-08-05T11:32:37Z</time>
      </trkpt>
      <trkpt lat="43.2837" lon="6.5171">
        <ele>61</ele>
        <time>2011-08-05T11:32:45Z</time>
      </trkpt>
      <trkpt lat="43.28322" lon="6.51701">
        <ele>59</ele>
        <time>2011-08-05T11:32:51Z</time>
      </trkpt>
      <trkpt lat="43.28268" lon="6.51688">
        <ele>60</ele>
        <time>2011-08-05T11:32:57Z</time>
      </trkpt>
      <trkpt lat="43.28219" lon="6.51677">
        <ele>61</ele>
        <time>2011-08-05T11:33:03Z</time>
      </trkpt>
      <trkpt lat="43.28176" lon="6.51687">
        <ele>63</ele>
        <time>2011-08-05T11:33:16Z</time>
      </trkpt>
      <trkpt lat="43.28132" lon="6.51666">
        <ele>68</ele>
        <time>2011-08-05T11:33:34Z</time>
      </trkpt>
      <trkpt lat="43.28082" lon="6.51647">
        <ele>64</ele>
        <time>2011-08-05T11:33:48Z</time>
      </trkpt>
      <trkpt lat="43.28036" lon="6.51636">
        <ele>67</ele>
        <time>2011-08-05T11:33:59Z</time>
      </trkpt>
      <trkpt lat="43.27989" lon="6.51632">
        <ele>66</ele>
        <time>2011-08-05T11:34:12Z</time>
      </trkpt>
      <trkpt lat="43.27939" lon="6.51624">
        <ele>67</ele>
        <time>2011-08-05T11:34:23Z</time>
      </trkpt>
      <trkpt lat="43.27892" lon="6.51607">
        <ele>66</ele>
        <time>2011-08-05T11:34:30Z</time>
      </trkpt>
      <trkpt lat="43.27844" lon="6.51594">
        <ele>64</ele>
        <time>2011-08-05T11:34:38Z</time>
      </trkpt>
      <trkpt lat="43.27798" lon="6.5158">
        <ele>73</ele>
        <time>2011-08-05T11:34:47Z</time>
      </trkpt>
      <trkpt lat="43.27748" lon="6.51567">
        <ele>71</ele>
        <time>2011-08-05T11:35:00Z</time>
      </trkpt>
      <trkpt lat="43.27698" lon="6.51566">
        <ele>75</ele>
        <time>2011-08-05T11:35:16Z</time>
      </trkpt>
      <trkpt lat="43.27653" lon="6.51565">
        <ele>71</ele>
        <time>2011-08-05T11:35:33Z</time>
      </trkpt>
      <trkpt lat="43.27659" lon="6.5158">
        <ele>70</ele>
        <time>2011-08-05T11:36:04Z</time>
      </trkpt>
      <trkpt lat="43.27708" lon="6.51585">
        <ele>65</ele>
        <time>2011-08-05T11:36:12Z</time>
      </trkpt>
      <trkpt lat="43.27753" lon="6.51586">
        <ele>64</ele>
        <time>2011-08-05T11:36:22Z</time>
      </trkpt>
      <trkpt lat="43.27801" lon="6.51593">
        <ele>62</ele>
        <time>2011-08-05T11:36:32Z</time>
      </trkpt>
      <trkpt lat="43.27851" lon="6.51605">
        <ele>64</ele>
        <time>2011-08-05T11:36:42Z</time>
      </trkpt>
      <trkpt lat="43.27898" lon="6.51621">
        <ele>65</ele>
        <time>2011-08-05T11:36:52Z</time>
      </trkpt>
      <trkpt lat="43.27945" lon="6.51638">
        <ele>66</ele>
        <time>2011-08-05T11:37:11Z</time>
      </trkpt>
      <trkpt lat="43.27994" lon="6.5164">
        <ele>65</ele>
        <time>2011-08-05T11:37:28Z</time>
      </trkpt>
      <trkpt lat="43.28046" lon="6.5165">
        <ele>65</ele>
        <time>2011-08-05T11:37:41Z</time>
      </trkpt>
      <trkpt lat="43.28096" lon="6.51659">
        <ele>64</ele>
        <time>2011-08-05T11:37:53Z</time>
      </trkpt>
      <trkpt lat="43.28145" lon="6.51683">
        <ele>63</ele>
        <time>2011-08-05T11:38:06Z</time>
      </trkpt>
      <trkpt lat="43.28192" lon="6.51703">
        <ele>61</ele>
        <time>2011-08-05T11:38:14Z</time>
      </trkpt>
      <trkpt lat="43.2824" lon="6.51688">
        <ele>61</ele>
        <time>2011-08-05T11:38:21Z</time>
      </trkpt>
      <trkpt lat="43.28288" lon="6.51702">
        <ele>59</ele>
        <time>2011-08-05T11:38:29Z</time>
      </trkpt>
      <trkpt lat="43.28303" lon="6.51706">
        <ele>59</ele>
        <time>2011-08-05T11:38:49Z</time>
      </trkpt>
      <trkpt lat="43.28255" lon="6.51692">
        <ele>60</ele>
        <time>2011-08-05T11:38:59Z</time>
      </trkpt>
      <trkpt lat="43.28211" lon="6.51684">
        <ele>61</ele>
        <time>2011-08-05T11:39:09Z</time>
      </trkpt>
      <trkpt lat="43.28164" lon="6.51681">
        <ele>64</ele>
        <time>2011-08-05T11:39:26Z</time>
      </trkpt>
      <trkpt lat="43.28118" lon="6.51655">
        <ele>68</ele>
        <time>2011-08-05T11:39:43Z</time>
      </trkpt>
      <trkpt lat="43.2807" lon="6.51647">
        <ele>64</ele>
        <time>2011-08-05T11:39:56Z</time>
      </trkpt>
      <trkpt lat="43.28026" lon="6.51635">
        <ele>67</ele>
        <time>2011-08-05T11:40:08Z</time>
      </trkpt>
      <trkpt lat="43.27982" lon="6.51633">
        <ele>66</ele>
        <time>2011-08-05T11:40:21Z</time>
      </trkpt>
      <trkpt lat="43.27936" lon="6.5163">
        <ele>66</ele>
        <time>2011-08-05T11:40:31Z</time>
      </trkpt>
      <trkpt lat="43.27889" lon="6.51609">
        <ele>65</ele>
        <time>2011-08-05T11:40:40Z</time>
      </trkpt>
      <trkpt lat="43.27841" lon="6.51595">
        <ele>64</ele>
        <time>2011-08-05T11:40:52Z</time>
      </trkpt>
      <trkpt lat="43.27789" lon="6.51578">
        <ele>73</ele>
        <time>2011-08-05T11:41:06Z</time>
      </trkpt>
      <trkpt lat="43.27739" lon="6.51571">
        <ele>71</ele>
        <time>2011-08-05T11:41:21Z</time>
      </trkpt>
      <trkpt lat="43.27691" lon="6.5157">
        <ele>74</ele>
        <time>2011-08-05T11:41:35Z</time>
      </trkpt>
      <trkpt lat="43.27645" lon="6.5157">
        <ele>71</ele>
        <time>2011-08-05T11:41:52Z</time>
      </trkpt>
      <trkpt lat="43.27621" lon="6.51596">
        <ele>71</ele>
        <time>2011-08-05T11:42:24Z</time>
      </trkpt>
      <trkpt lat="43.27657" lon="6.51625">
        <ele>71</ele>
        <time>2011-08-05T11:42:58Z</time>
      </trkpt>
      <trkpt lat="43.27682" lon="6.51674">
        <ele>67</ele>
        <time>2011-08-05T11:43:11Z</time>
      </trkpt>
      <trkpt lat="43.27677" lon="6.5174">
        <ele>64</ele>
        <time>2011-08-05T11:43:52Z</time>
      </trkpt>
      <trkpt lat="43.27641" lon="6.51786">
        <ele>69</ele>
        <time>2011-08-05T11:44:02Z</time>
      </trkpt>
      <trkpt lat="43.27605" lon="6.51825">
        <ele>73</ele>
        <time>2011-08-05T11:44:11Z</time>
      </trkpt>
      <trkpt lat="43.2759" lon="6.51882">
        <ele>69</ele>
        <time>2011-08-05T11:44:27Z</time>
      </trkpt>
      <trkpt lat="43.27596" lon="6.51944">
        <ele>72</ele>
        <time>2011-08-05T11:45:19Z</time>
      </trkpt>
      <trkpt lat="43.2761" lon="6.52003">
        <ele>80</ele>
        <time>2011-08-05T11:46:25Z</time>
      </trkpt>
      <trkpt lat="43.27662" lon="6.52064">
        <ele>76</ele>
        <time>2011-08-05T11:46:45Z</time>
      </trkpt>
      <trkpt lat="43.27703" lon="6.5212">
        <ele>73</ele>
        <time>2011-08-05T11:47:05Z</time>
      </trkpt>
      <trkpt lat="43.27751" lon="6.52107">
        <ele>57</ele>
        <time>2011-08-05T11:47:53Z</time>
      </trkpt>
      <trkpt lat="43.27786" lon="6.52078">
        <ele>48</ele>
        <time>2011-08-05T11:49:28Z</time>
      </trkpt>
      <trkpt lat="43.27811" lon="6.5204">
        <ele>46</ele>
        <time>2011-08-05T11:51:12Z</time>
      </trkpt>
      <trkpt lat="43.27836" lon="6.52056">
        <ele>50</ele>
        <time>2011-08-05T11:52:28Z</time>
      </trkpt>
      <trkpt lat="43.27836" lon="6.52118">
        <ele>50</ele>
        <time>2011-08-05T11:52:48Z</time>
      </trkpt>
      <trkpt lat="43.27842" lon="6.52179">
        <ele>51</ele>
        <time>2011-08-05T11:53:08Z</time>
      </trkpt>
      <trkpt lat="43.2785" lon="6.52241">
        <ele>52</ele>
        <time>2011-08-05T11:53:35Z</time>
      </trkpt>
      <trkpt lat="43.27851" lon="6.52306">
        <ele>51</ele>
        <time>2011-08-05T11:53:54Z</time>
      </trkpt>
      <trkpt lat="43.27855" lon="6.52367">
        <ele>48</ele>
        <time>2011-08-05T11:54:14Z</time>
      </trkpt>
      <trkpt lat="43.27861" lon="6.5243">
        <ele>44</ele>
        <time>2011-08-05T11:55:01Z</time>
      </trkpt>
      <trkpt lat="43.27852" lon="6.52495">
        <ele>43</ele>
        <time>2011-08-05T11:55:16Z</time>
      </trkpt>
      <trkpt lat="43.27845" lon="6.52557">
        <ele>37</ele>
        <time>2011-08-05T11:55:29Z</time>
      </trkpt>
      <trkpt lat="43.27829" lon="6.52611">
        <ele>32</ele>
        <time>2011-08-05T11:55:42Z</time>
      </trkpt>
      <trkpt lat="43.27786" lon="6.52595">
        <ele>32</ele>
        <time>2011-08-05T11:55:52Z</time>
      </trkpt>
      <trkpt lat="43.27758" lon="6.52632">
        <ele>30</ele>
        <time>2011-08-05T11:56:04Z</time>
      </trkpt>
      <trkpt lat="43.27708" lon="6.52636">
        <ele>29</ele>
        <time>2011-08-05T11:56:17Z</time>
      </trkpt>
      <trkpt lat="43.27668" lon="6.5267">
        <ele>25</ele>
        <time>2011-08-05T11:56:32Z</time>
      </trkpt>
      <trkpt lat="43.27643" lon="6.52723">
        <ele>24</ele>
        <time>2011-08-05T11:56:44Z</time>
      </trkpt>
      <trkpt lat="43.27615" lon="6.5277">
        <ele>23</ele>
        <time>2011-08-05T11:56:58Z</time>
      </trkpt>
      <trkpt lat="43.27617" lon="6.52834">
        <ele>24</ele>
        <time>2011-08-05T11:57:13Z</time>
      </trkpt>
      <trkpt lat="43.27615" lon="6.52896">
        <ele>25</ele>
        <time>2011-08-05T11:57:26Z</time>
      </trkpt>
      <trkpt lat="43.27631" lon="6.52958">
        <ele>24</ele>
        <time>2011-08-05T11:57:39Z</time>
      </trkpt>
      <trkpt lat="43.2765" lon="6.53013">
        <ele>21</ele>
        <time>2011-08-05T11:57:55Z</time>
      </trkpt>
      <trkpt lat="43.27656" lon="6.53075">
        <ele>19</ele>
        <time>2011-08-05T11:58:09Z</time>
      </trkpt>
      <trkpt lat="43.27638" lon="6.53134">
        <ele>19</ele>
        <time>2011-08-05T11:58:22Z</time>
      </trkpt>
      <trkpt lat="43.27616" lon="6.5319">
        <ele>19</ele>
        <time>2011-08-05T11:58:35Z</time>
      </trkpt>
      <trkpt lat="43.2759" lon="6.53243">
        <ele>19</ele>
        <time>2011-08-05T11:58:47Z</time>
      </trkpt>
      <trkpt lat="43.27568" lon="6.53301">
        <ele>21</ele>
        <time>2011-08-05T11:58:59Z</time>
      </trkpt>
      <trkpt lat="43.27549" lon="6.53359">
        <ele>19</ele>
        <time>2011-08-05T11:59:11Z</time>
      </trkpt>
      <trkpt lat="43.27538" lon="6.53421">
        <ele>18</ele>
        <time>2011-08-05T11:59:23Z</time>
      </trkpt>
      <trkpt lat="43.2752" lon="6.53477">
        <ele>18</ele>
        <time>2011-08-05T11:59:35Z</time>
      </trkpt>
      <trkpt lat="43.27493" lon="6.53531">
        <ele>18</ele>
        <time>2011-08-05T11:59:46Z</time>
      </trkpt>
      <trkpt lat="43.27473" lon="6.53588">
        <ele>16</ele>
        <time>2011-08-05T11:59:56Z</time>
      </trkpt>
      <trkpt lat="43.27453" lon="6.53649">
        <ele>16</ele>
        <time>2011-08-05T12:00:06Z</time>
      </trkpt>
      <trkpt lat="43.27431" lon="6.53708">
        <ele>16</ele>
        <time>2011-08-05T12:00:15Z</time>
      </trkpt>
      <trkpt lat="43.27408" lon="6.53767">
        <ele>15</ele>
        <time>2011-08-05T12:00:25Z</time>
      </trkpt>
      <trkpt lat="43.27391" lon="6.53824">
        <ele>15</ele>
        <time>2011-08-05T12:00:36Z</time>
      </trkpt>
      <trkpt lat="43.27377" lon="6.53887">
        <ele>13</ele>
        <time>2011-08-05T12:00:48Z</time>
      </trkpt>
      <trkpt lat="43.27377" lon="6.53952">
        <ele>14</ele>
        <time>2011-08-05T12:00:58Z</time>
      </trkpt>
      <trkpt lat="43.27383" lon="6.54013">
        <ele>14</ele>
        <time>2011-08-05T12:01:09Z</time>
      </trkpt>
      <trkpt lat="43.27387" lon="6.54078">
        <ele>13</ele>
        <time>2011-08-05T12:01:20Z</time>
      </trkpt>
      <trkpt lat="43.27393" lon="6.54144">
        <ele>13</ele>
        <time>2011-08-05T12:01:32Z</time>
      </trkpt>
      <trkpt lat="43.27387" lon="6.5421">
        <ele>13</ele>
        <time>2011-08-05T12:01:42Z</time>
      </trkpt>
      <trkpt lat="43.27381" lon="6.54273">
        <ele>13</ele>
        <time>2011-08-05T12:01:52Z</time>
      </trkpt>
      <trkpt lat="43.27372" lon="6.54334">
        <ele>12</ele>
        <time>2011-08-05T12:03:01Z</time>
      </trkpt>
      <trkpt lat="43.27361" lon="6.54401">
        <ele>12</ele>
        <time>2011-08-05T12:03:13Z</time>
      </trkpt>
      <trkpt lat="43.27346" lon="6.54462">
        <ele>11</ele>
        <time>2011-08-05T12:03:25Z</time>
      </trkpt>
      <trkpt lat="43.27334" lon="6.54525">
        <ele>10</ele>
        <time>2011-08-05T12:03:37Z</time>
      </trkpt>
      <trkpt lat="43.2732" lon="6.54584">
        <ele>10</ele>
        <time>2011-08-05T12:03:50Z</time>
      </trkpt>
      <trkpt lat="43.27305" lon="6.54643">
        <ele>10</ele>
        <time>2011-08-05T12:04:03Z</time>
      </trkpt>
      <trkpt lat="43.27281" lon="6.54695">
        <ele>10</ele>
        <time>2011-08-05T12:04:15Z</time>
      </trkpt>
      <trkpt lat="43.27257" lon="6.54751">
        <ele>10</ele>
        <time>2011-08-05T12:04:27Z</time>
      </trkpt>
      <trkpt lat="43.27236" lon="6.54805">
        <ele>10</ele>
        <time>2011-08-05T12:04:40Z</time>
      </trkpt>
      <trkpt lat="43.27218" lon="6.54863">
        <ele>10</ele>
        <time>2011-08-05T12:04:52Z</time>
      </trkpt>
      <trkpt lat="43.272" lon="6.54924">
        <ele>10</ele>
        <time>2011-08-05T12:05:04Z</time>
      </trkpt>
      <trkpt lat="43.27182" lon="6.54986">
        <ele>10</ele>
        <time>2011-08-05T12:05:14Z</time>
      </trkpt>
      <trkpt lat="43.27167" lon="6.55048">
        <ele>12</ele>
        <time>2011-08-05T12:05:23Z</time>
      </trkpt>
      <trkpt lat="43.27156" lon="6.5511">
        <ele>12</ele>
        <time>2011-08-05T12:05:32Z</time>
      </trkpt>
      <trkpt lat="43.27144" lon="6.55173">
        <ele>12</ele>
        <time>2011-08-05T12:05:43Z</time>
      </trkpt>
      <trkpt lat="43.27138" lon="6.55238">
        <ele>13</ele>
        <time>2011-08-05T12:05:53Z</time>
      </trkpt>
      <trkpt lat="43.27109" lon="6.55292">
        <ele>11</ele>
        <time>2011-08-05T12:06:03Z</time>
      </trkpt>
      <trkpt lat="43.27086" lon="6.55344">
        <ele>11</ele>
        <time>2011-08-05T12:06:14Z</time>
      </trkpt>
      <trkpt lat="43.27097" lon="6.55408">
        <ele>11</ele>
        <time>2011-08-05T12:06:28Z</time>
      </trkpt>
      <trkpt lat="43.27112" lon="6.5547">
        <ele>9</ele>
        <time>2011-08-05T12:06:41Z</time>
      </trkpt>
      <trkpt lat="43.2714" lon="6.55522">
        <ele>7</ele>
        <time>2011-08-05T12:06:53Z</time>
      </trkpt>
      <trkpt lat="43.27163" lon="6.55583">
        <ele>7</ele>
        <time>2011-08-05T12:07:03Z</time>
      </trkpt>
      <trkpt lat="43.27179" lon="6.55643">
        <ele>6</ele>
        <time>2011-08-05T12:07:13Z</time>
      </trkpt>
      <trkpt lat="43.27191" lon="6.55703">
        <ele>6</ele>
        <time>2011-08-05T12:07:27Z</time>
      </trkpt>
      <trkpt lat="43.2719" lon="6.55722">
        <ele>6</ele>
        <time>2011-08-05T12:11:13Z</time>
      </trkpt>
      <trkpt lat="43.27197" lon="6.55781">
        <ele>6</ele>
        <time>2011-08-05T12:11:28Z</time>
      </trkpt>
      <trkpt lat="43.27204" lon="6.55842">
        <ele>5</ele>
        <time>2011-08-05T12:11:41Z</time>
      </trkpt>
      <trkpt lat="43.2721" lon="6.55907">
        <ele>6</ele>
        <time>2011-08-05T12:11:55Z</time>
      </trkpt>
      <trkpt lat="43.27216" lon="6.5597">
        <ele>5</ele>
        <time>2011-08-05T12:12:07Z</time>
      </trkpt>
      <trkpt lat="43.27225" lon="6.56029">
        <ele>4</ele>
        <time>2011-08-05T12:12:18Z</time>
      </trkpt>
      <trkpt lat="43.27246" lon="6.5609">
        <ele>5</ele>
        <time>2011-08-05T12:12:29Z</time>
      </trkpt>
      <trkpt lat="43.27281" lon="6.56144">
        <ele>4</ele>
        <time>2011-08-05T12:12:41Z</time>
      </trkpt>
      <trkpt lat="43.27311" lon="6.56191">
        <ele>4</ele>
        <time>2011-08-05T12:12:57Z</time>
      </trkpt>
      <trkpt lat="43.27345" lon="6.56236">
        <ele>3</ele>
        <time>2011-08-05T12:13:10Z</time>
      </trkpt>
      <trkpt lat="43.2735" lon="6.563">
        <ele>4</ele>
        <time>2011-08-05T12:13:21Z</time>
      </trkpt>
      <trkpt lat="43.27356" lon="6.56363">
        <ele>5</ele>
        <time>2011-08-05T12:13:32Z</time>
      </trkpt>
      <trkpt lat="43.27387" lon="6.56412">
        <ele>4</ele>
        <time>2011-08-05T12:13:43Z</time>
      </trkpt>
      <trkpt lat="43.27415" lon="6.56462">
        <ele>4</ele>
        <time>2011-08-05T12:13:56Z</time>
      </trkpt>
      <trkpt lat="43.27447" lon="6.56513">
        <ele>4</ele>
        <time>2011-08-05T12:14:10Z</time>
      </trkpt>
      <trkpt lat="43.27479" lon="6.56563">
        <ele>4</ele>
        <time>2011-08-05T12:14:25Z</time>
      </trkpt>
      <trkpt lat="43.27501" lon="6.56615">
        <ele>4</ele>
        <time>2011-08-05T12:14:38Z</time>
      </trkpt>
      <trkpt lat="43.27521" lon="6.5668">
        <ele>3</ele>
        <time>2011-08-05T12:14:48Z</time>
      </trkpt>
      <trkpt lat="43.27533" lon="6.56745">
        <ele>3</ele>
        <time>2011-08-05T12:14:58Z</time>
      </trkpt>
      <trkpt lat="43.2755" lon="6.56802">
        <ele>3</ele>
        <time>2011-08-05T12:15:10Z</time>
      </trkpt>
      <trkpt lat="43.27565" lon="6.56861">
        <ele>3</ele>
        <time>2011-08-05T12:15:21Z</time>
      </trkpt>
      <trkpt lat="43.27581" lon="6.56921">
        <ele>2</ele>
        <time>2011-08-05T12:15:32Z</time>
      </trkpt>
      <trkpt lat="43.27602" lon="6.56977">
        <ele>2</ele>
        <time>2011-08-05T12:15:44Z</time>
      </trkpt>
      <trkpt lat="43.27635" lon="6.57023">
        <ele>3</ele>
        <time>2011-08-05T12:15:55Z</time>
      </trkpt>
      <trkpt lat="43.27667" lon="6.57069">
        <ele>4</ele>
        <time>2011-08-05T12:16:07Z</time>
      </trkpt>
      <trkpt lat="43.27701" lon="6.57113">
        <ele>4</ele>
        <time>2011-08-05T12:16:20Z</time>
      </trkpt>
      <trkpt lat="43.27733" lon="6.57161">
        <ele>5</ele>
        <time>2011-08-05T12:16:32Z</time>
      </trkpt>
      <trkpt lat="43.2776" lon="6.57214">
        <ele>6</ele>
        <time>2011-08-05T12:16:46Z</time>
      </trkpt>
      <trkpt lat="43.27781" lon="6.5727">
        <ele>6</ele>
        <time>2011-08-05T12:17:00Z</time>
      </trkpt>
      <trkpt lat="43.27803" lon="6.57327">
        <ele>6</ele>
        <time>2011-08-05T12:17:14Z</time>
      </trkpt>
      <trkpt lat="43.27825" lon="6.57384">
        <ele>5</ele>
        <time>2011-08-05T12:17:27Z</time>
      </trkpt>
      <trkpt lat="43.27844" lon="6.57444">
        <ele>7</ele>
        <time>2011-08-05T12:17:40Z</time>
      </trkpt>
      <trkpt lat="43.27855" lon="6.57504">
        <ele>8</ele>
        <time>2011-08-05T12:17:58Z</time>
      </trkpt>
      <trkpt lat="43.27865" lon="6.57564">
        <ele>8</ele>
        <time>2011-08-05T12:18:13Z</time>
      </trkpt>
      <trkpt lat="43.2788" lon="6.5762">
        <ele>6</ele>
        <time>2011-08-05T12:18:30Z</time>
      </trkpt>
      <trkpt lat="43.2791" lon="6.57664">
        <ele>6</ele>
        <time>2011-08-05T12:18:49Z</time>
      </trkpt>
      <trkpt lat="43.27942" lon="6.57705">
        <ele>6</ele>
        <time>2011-08-05T12:19:09Z</time>
      </trkpt>
      <trkpt lat="43.27945" lon="6.57757">
        <ele>6</ele>
        <time>2011-08-05T12:20:01Z</time>
      </trkpt>
      <trkpt lat="43.27956" lon="6.57812">
        <ele>6</ele>
        <time>2011-08-05T12:20:18Z</time>
      </trkpt>
      <trkpt lat="43.27984" lon="6.57869">
        <ele>6</ele>
        <time>2011-08-05T12:20:30Z</time>
      </trkpt>
      <trkpt lat="43.28013" lon="6.57921">
        <ele>6</ele>
        <time>2011-08-05T12:20:41Z</time>
      </trkpt>
      <trkpt lat="43.28039" lon="6.57971">
        <ele>6</ele>
        <time>2011-08-05T12:23:01Z</time>
      </trkpt>
      <trkpt lat="43.28057" lon="6.58031">
        <ele>5</ele>
        <time>2011-08-05T12:23:16Z</time>
      </trkpt>
      <trkpt lat="43.28072" lon="6.58087">
        <ele>5</ele>
        <time>2011-08-05T12:23:30Z</time>
      </trkpt>
      <trkpt lat="43.2809" lon="6.58149">
        <ele>6</ele>
        <time>2011-08-05T12:23:43Z</time>
      </trkpt>
      <trkpt lat="43.28106" lon="6.58214">
        <ele>7</ele>
        <time>2011-08-05T12:23:54Z</time>
      </trkpt>
      <trkpt lat="43.28122" lon="6.58281">
        <ele>6</ele>
        <time>2011-08-05T12:24:04Z</time>
      </trkpt>
      <trkpt lat="43.2814" lon="6.58345">
        <ele>6</ele>
        <time>2011-08-05T12:24:14Z</time>
      </trkpt>
      <trkpt lat="43.2816" lon="6.58407">
        <ele>7</ele>
        <time>2011-08-05T12:24:24Z</time>
      </trkpt>
      <trkpt lat="43.28188" lon="6.5846">
        <ele>8</ele>
        <time>2011-08-05T12:24:36Z</time>
      </trkpt>
      <trkpt lat="43.28192" lon="6.58522">
        <ele>8</ele>
        <time>2011-08-05T12:24:47Z</time>
      </trkpt>
      <trkpt lat="43.28206" lon="6.58587">
        <ele>6</ele>
        <time>2011-08-05T12:24:58Z</time>
      </trkpt>
      <trkpt lat="43.2819" lon="6.58639">
        <ele>5</ele>
        <time>2011-08-05T12:25:10Z</time>
      </trkpt>
      <trkpt lat="43.28176" lon="6.58703">
        <ele>4</ele>
        <time>2011-08-05T12:25:24Z</time>
      </trkpt>
    </trkseg>
  </trk>
</gpx>